Wetterdaten: Montag, 15.10.2018
Datum Zeit Temp. Aussen Temp. o. S. +5cm Feuchte Auss Luftdruck Regen Sonnenschein Regendauer Solar Windben Empfang
15.10.2018 00:00 17,7 C 16,7 C 15,6 C 72 % 1007,7 hPa 0,0 l/m 0 min 0 min 0 W/m 9,7 km/h (2 Bft) 100,00 %
15.10.2018 00:02 17,7 C 16,7 C 15,6 C 73 % 1007,8 hPa 0,0 l/m 0 min 0 min 0 W/m 6,4 km/h (2 Bft) 96,67 %
15.10.2018 00:04 17,7 C 16,7 C 15,6 C 73 % 1007,7 hPa 0,0 l/m 0 min 0 min 0 W/m 9,7 km/h (2 Bft) 100,00 %
15.10.2018 00:07 17,7 C 16,7 C 16,1 C 73 % 1007,8 hPa 0,0 l/m 0 min 0 min 0 W/m 9,7 km/h (2 Bft) 100,00 %
15.10.2018 00:08 17,6 C 16,7 C 16,1 C 73 % 1007,8 hPa 0,0 l/m 0 min 0 min 0 W/m 9,7 km/h (2 Bft) 100,00 %
15.10.2018 00:10 17,6 C 16,7 C 15,6 C 73 % 1007,8 hPa 0,0 l/m 0 min 0 min 0 W/m 9,7 km/h (2 Bft) 98,11 %
15.10.2018 00:12 17,6 C 16,7 C 16,1 C 73 % 1007,8 hPa 0,0 l/m 0 min 0 min 0 W/m 12,9 km/h (3 Bft) 100,00 %
15.10.2018 00:14 17,6 C 16,7 C 15,6 C 73 % 1007,7 hPa 0,0 l/m 0 min 0 min 0 W/m 9,7 km/h (2 Bft) 100,00 %
15.10.2018 00:16 17,6 C 16,7 C 15,6 C 73 % 1007,7 hPa 0,0 l/m 0 min 0 min 0 W/m 9,7 km/h (2 Bft) 100,00 %
15.10.2018 00:18 17,6 C 16,7 C 15,6 C 73 % 1007,7 hPa 0,0 l/m 0 min 0 min 0 W/m 9,7 km/h (2 Bft) 97,87 %
15.10.2018 00:20 17,6 C 16,7 C 15,6 C 73 % 1007,7 hPa 0,0 l/m 0 min 0 min 0 W/m 9,7 km/h (2 Bft) 100,00 %
15.10.2018 00:22 17,5 C 16,7 C 15,6 C 73 % 1007,7 hPa 0,0 l/m 0 min 0 min 0 W/m 9,7 km/h (2 Bft) 100,00 %
15.10.2018 00:24 17,5 C 16,7 C 15,6 C 73 % 1007,7 hPa 0,0 l/m 0 min 0 min 0 W/m 6,4 km/h (2 Bft) 100,00 %
15.10.2018 00:26 17,5 C 16,7 C 15,6 C 73 % 1007,8 hPa 0,0 l/m 0 min 0 min 0 W/m 6,4 km/h (2 Bft) 100,00 %
15.10.2018 00:28 17,4 C 16,7 C 15,6 C 73 % 1007,7 hPa 0,0 l/m 0 min 0 min 0 W/m 9,7 km/h (2 Bft) 100,00 %
15.10.2018 00:30 17,4 C 16,7 C 15,6 C 73 % 1007,8 hPa 0,0 l/m 0 min 0 min 0 W/m 9,7 km/h (2 Bft) 100,00 %
15.10.2018 00:32 17,4 C 16,7 C 15,6 C 73 % 1007,7 hPa 0,0 l/m 0 min 0 min 0 W/m 9,7 km/h (2 Bft) 100,00 %
15.10.2018 00:34 17,4 C 16,7 C 15,6 C 73 % 1007,7 hPa 0,0 l/m 0 min 0 min 0 W/m 6,4 km/h (2 Bft) 100,00 %
15.10.2018 00:38 17,4 C 16,1 C 15,6 C 74 % 1007,8 hPa 0,0 l/m 0 min 0 min 0 W/m 12,9 km/h (3 Bft) 98,97 %
15.10.2018 00:40 17,3 C 16,1 C 15,6 C 74 % 1007,8 hPa 0,0 l/m 0 min 0 min 0 W/m 9,7 km/h (2 Bft) 100,00 %
15.10.2018 00:42 17,3 C 16,1 C 15,6 C 74 % 1007,8 hPa 0,0 l/m 0 min 0 min 0 W/m 9,7 km/h (2 Bft) 100,00 %
15.10.2018 00:44 17,3 C 16,1 C 15,6 C 74 % 1007,8 hPa 0,0 l/m 0 min 0 min 0 W/m 6,4 km/h (2 Bft) 97,87 %
15.10.2018 00:46 17,3 C 16,1 C 15,6 C 74 % 1007,8 hPa 0,0 l/m 0 min 0 min 0 W/m 9,7 km/h (2 Bft) 97,87 %
15.10.2018 00:48 17,3 C 16,1 C 15,6 C 74 % 1007,8 hPa 0,0 l/m 0 min 0 min 0 W/m 9,7 km/h (2 Bft) 97,87 %
15.10.2018 00:50 17,2 C 16,1 C 15,6 C 74 % 1007,8 hPa 0,0 l/m 0 min 0 min 0 W/m 9,7 km/h (2 Bft) 100,00 %
15.10.2018 00:52 17,2 C 16,1 C 15,6 C 74 % 1007,8 hPa 0,0 l/m 0 min 0 min 0 W/m 9,7 km/h (2 Bft) 97,87 %
15.10.2018 00:54 17,2 C 16,1 C 15,6 C 74 % 1007,9 hPa 0,0 l/m 0 min 0 min 0 W/m 9,7 km/h (2 Bft) 97,87 %
15.10.2018 00:56 17,2 C 16,1 C 15,6 C 74 % 1007,8 hPa 0,0 l/m 0 min 0 min 0 W/m 6,4 km/h (2 Bft) 95,74 %
15.10.2018 00:58 17,2 C 16,1 C 15,6 C 74 % 1007,9 hPa 0,0 l/m 0 min 0 min 0 W/m 9,7 km/h (2 Bft) 100,00 %
15.10.2018 01:00 17,1 C 16,1 C 15,0 C 74 % 1007,9 hPa 0,0 l/m 0 min 0 min 0 W/m 6,4 km/h (2 Bft) 100,00 %
15.10.2018 01:02 17,1 C 15,6 C 15,0 C 74 % 1007,9 hPa 0,0 l/m 0 min 0 min 0 W/m 9,7 km/h (2 Bft) 95,74 %
15.10.2018 01:04 17,1 C 15,6 C 15,0 C 74 % 1007,9 hPa 0,0 l/m 0 min 0 min 0 W/m 9,7 km/h (2 Bft) 100,00 %
15.10.2018 01:08 17,0 C 15,6 C 15,0 C 75 % 1007,9 hPa 0,0 l/m 0 min 0 min 0 W/m 12,9 km/h (3 Bft) 100,00 %
15.10.2018 01:10 16,9 C 15,6 C 15,0 C 75 % 1007,9 hPa 0,0 l/m 0 min 0 min 0 W/m 9,7 km/h (2 Bft) 97,87 %
15.10.2018 01:12 16,9 C 15,6 C 15,0 C 75 % 1007,9 hPa 0,0 l/m 0 min 0 min 0 W/m 6,4 km/h (2 Bft) 97,83 %
15.10.2018 01:14 16,9 C 15,6 C 15,0 C 75 % 1007,9 hPa 0,0 l/m 0 min 0 min 0 W/m 6,4 km/h (2 Bft) 97,87 %
15.10.2018 01:16 16,9 C 15,6 C 15,0 C 75 % 1008,0 hPa 0,0 l/m 0 min 0 min 0 W/m 12,9 km/h (3 Bft) 95,74 %
15.10.2018 01:18 16,9 C 15,6 C 15,0 C 75 % 1007,9 hPa 0,0 l/m 0 min 0 min 0 W/m 6,4 km/h (2 Bft) 97,87 %
15.10.2018 01:20 16,8 C 15,6 C 15,0 C 75 % 1008,0 hPa 0,0 l/m 0 min 0 min 0 W/m 9,7 km/h (2 Bft) 98,28 %
15.10.2018 01:22 16,8 C 15,6 C 15,0 C 75 % 1008,0 hPa 0,0 l/m 0 min 0 min 0 W/m 6,4 km/h (2 Bft) 94,44 %
15.10.2018 01:24 16,8 C 15,6 C 15,0 C 76 % 1008,0 hPa 0,0 l/m 0 min 0 min 0 W/m 6,4 km/h (2 Bft) 97,87 %
15.10.2018 01:26 16,8 C 15,6 C 15,0 C 76 % 1008,0 hPa 0,0 l/m 0 min 0 min 0 W/m 6,4 km/h (2 Bft) 97,83 %
15.10.2018 01:28 16,7 C 15,6 C 15,0 C 76 % 1008,0 hPa 0,0 l/m 0 min 0 min 0 W/m 6,4 km/h (2 Bft) 95,74 %
15.10.2018 01:30 16,7 C 15,6 C 15,0 C 76 % 1008,0 hPa 0,0 l/m 0 min 0 min 0 W/m 6,4 km/h (2 Bft) 93,62 %
15.10.2018 01:32 16,7 C 15,6 C 15,0 C 76 % 1008,0 hPa 0,0 l/m 0 min 0 min 0 W/m 6,4 km/h (2 Bft) 98,11 %
15.10.2018 01:34 16,7 C 15,6 C 15,0 C 76 % 1008,0 hPa 0,0 l/m 0 min 0 min 0 W/m 3,2 km/h (1 Bft) 97,87 %
15.10.2018 01:38 16,6 C 15,6 C 15,0 C 76 % 1008,0 hPa 0,0 l/m 0 min 0 min 0 W/m 6,4 km/h (2 Bft) 96,91 %
15.10.2018 01:40 16,6 C 15,6 C 15,0 C 76 % 1008,0 hPa 0,0 l/m 0 min 0 min 0 W/m 6,4 km/h (2 Bft) 97,83 %
15.10.2018 01:42 16,6 C 15,6 C 15,0 C 77 % 1008,0 hPa 0,0 l/m 0 min 0 min 0 W/m 6,4 km/h (2 Bft) 97,87 %
15.10.2018 01:44 16,6 C 15,6 C 15,0 C 77 % 1008,0 hPa 0,0 l/m 0 min 0 min 0 W/m 6,4 km/h (2 Bft) 95,74 %
15.10.2018 01:46 16,5 C 15,6 C 15,0 C 77 % 1008,0 hPa 0,0 l/m 0 min 0 min 0 W/m 9,7 km/h (2 Bft) 95,74 %
15.10.2018 01:48 16,5 C 15,6 C 15,0 C 77 % 1008,1 hPa 0,0 l/m 0 min 0 min 0 W/m 6,4 km/h (2 Bft) 95,74 %
15.10.2018 01:50 16,5 C 15,6 C 15,0 C 77 % 1008,1 hPa 0,0 l/m 0 min 0 min 0 W/m 6,4 km/h (2 Bft) 95,74 %
15.10.2018 01:52 16,4 C 16,1 C 15,0 C 77 % 1008,1 hPa 0,0 l/m 0 min 0 min 0 W/m 6,4 km/h (2 Bft) 93,48 %
15.10.2018 01:54 16,4 C 16,1 C 15,0 C 77 % 1008,1 hPa 0,0 l/m 0 min 0 min 0 W/m 9,7 km/h (2 Bft) 93,62 %
15.10.2018 01:56 16,4 C 16,1 C 15,0 C 77 % 1008,1 hPa 0,0 l/m 0 min 0 min 0 W/m 6,4 km/h (2 Bft) 93,62 %
15.10.2018 01:58 16,4 C 16,1 C 15,0 C 77 % 1008,0 hPa 0,0 l/m 0 min 0 min 0 W/m 9,7 km/h (2 Bft) 91,49 %
15.10.2018 02:00 16,4 C 16,1 C 15,0 C 77 % 1008,1 hPa 0,0 l/m 0 min 0 min 0 W/m 6,4 km/h (2 Bft) 91,49 %
15.10.2018 02:02 16,4 C 16,1 C 15,0 C 77 % 1008,1 hPa 0,0 l/m 0 min 0 min 0 W/m 6,4 km/h (2 Bft) 96,00 %
15.10.2018 02:04 16,4 C 16,1 C 15,6 C 77 % 1008,0 hPa 0,0 l/m 0 min 0 min 0 W/m 12,9 km/h (3 Bft) 95,65 %
15.10.2018 02:08 16,5 C 16,1 C 15,6 C 77 % 1008,2 hPa 0,0 l/m 0 min 0 min 0 W/m 6,4 km/h (2 Bft) 94,05 %
15.10.2018 02:10 16,5 C 16,1 C 15,6 C 77 % 1008,1 hPa 0,0 l/m 0 min 0 min 0 W/m 12,9 km/h (3 Bft) 95,65 %
15.10.2018 02:12 16,5 C 16,1 C 15,6 C 77 % 1008,1 hPa 0,0 l/m 0 min 0 min 0 W/m 6,4 km/h (2 Bft) 91,49 %
15.10.2018 02:14 16,5 C 16,1 C 15,6 C 77 % 1008,2 hPa 0,0 l/m 0 min 0 min 0 W/m 9,7 km/h (2 Bft) 95,74 %
15.10.2018 02:16 16,5 C 16,1 C 15,6 C 77 % 1008,2 hPa 0,0 l/m 0 min 0 min 0 W/m 9,7 km/h (2 Bft) 95,92 %
15.10.2018 02:18 16,6 C 16,1 C 15,6 C 77 % 1008,1 hPa 0,0 l/m 0 min 0 min 0 W/m 9,7 km/h (2 Bft) 95,65 %
15.10.2018 02:20 16,6 C 16,1 C 15,0 C 77 % 1008,2 hPa 0,0 l/m 0 min 0 min 0 W/m 6,4 km/h (2 Bft) 96,61 %
15.10.2018 02:22 16,6 C 16,1 C 15,0 C 77 % 1008,2 hPa 0,0 l/m 0 min 0 min 0 W/m 9,7 km/h (2 Bft) 94,44 %
15.10.2018 02:24 16,6 C 16,1 C 15,6 C 77 % 1008,2 hPa 0,0 l/m 0 min 0 min 0 W/m 9,7 km/h (2 Bft) 93,62 %
15.10.2018 02:26 16,6 C 16,1 C 15,6 C 77 % 1008,1 hPa 0,0 l/m 0 min 0 min 0 W/m 9,7 km/h (2 Bft) 93,62 %
15.10.2018 02:28 16,6 C 16,1 C 15,6 C 77 % 1008,2 hPa 0,0 l/m 0 min 0 min 0 W/m 9,7 km/h (2 Bft) 93,62 %
15.10.2018 02:30 16,6 C 16,1 C 15,0 C 77 % 1008,2 hPa 0,0 l/m 0 min 0 min 0 W/m 9,7 km/h (2 Bft) 95,65 %
15.10.2018 02:32 16,6 C 16,1 C 15,0 C 77 % 1008,2 hPa 0,0 l/m 0 min 0 min 0 W/m 9,7 km/h (2 Bft) 95,92 %
15.10.2018 02:34 16,6 C 16,1 C 15,6 C 77 % 1008,2 hPa 0,0 l/m 0 min 0 min 0 W/m 9,7 km/h (2 Bft) 95,74 %
15.10.2018 02:38 16,6 C 16,1 C 15,6 C 77 % 1008,1 hPa 0,0 l/m 0 min 0 min 0 W/m 12,9 km/h (3 Bft) 95,74 %
15.10.2018 02:40 16,6 C 16,1 C 15,6 C 77 % 1008,1 hPa 0,0 l/m 0 min 0 min 0 W/m 9,7 km/h (2 Bft) 95,74 %
15.10.2018 02:42 16,6 C 16,1 C 15,6 C 77 % 1008,1 hPa 0,0 l/m 0 min 0 min 0 W/m 12,9 km/h (3 Bft) 97,87 %
15.10.2018 02:44 16,7 C 16,1 C 15,6 C 77 % 1008,1 hPa 0,0 l/m 0 min 0 min 0 W/m 12,9 km/h (3 Bft) 95,65 %
15.10.2018 02:46 16,7 C 16,1 C 15,6 C 77 % 1008,1 hPa 0,0 l/m 0 min 0 min 0 W/m 12,9 km/h (3 Bft) 97,87 %
15.10.2018 02:48 16,7 C 16,1 C 15,6 C 77 % 1008,1 hPa 0,0 l/m 0 min 0 min 0 W/m 9,7 km/h (2 Bft) 100,00 %
15.10.2018 02:50 16,7 C 16,1 C 15,6 C 76 % 1008,1 hPa 0,0 l/m 0 min 0 min 0 W/m 12,9 km/h (3 Bft) 97,87 %
15.10.2018 02:52 16,7 C 16,1 C 15,6 C 76 % 1008,1 hPa 0,0 l/m 0 min 0 min 0 W/m 12,9 km/h (3 Bft) 97,87 %
15.10.2018 02:54 16,7 C 16,1 C 15,6 C 76 % 1008,1 hPa 0,0 l/m 0 min 0 min 0 W/m 9,7 km/h (2 Bft) 100,00 %
15.10.2018 02:56 16,7 C 16,1 C 15,6 C 76 % 1008,1 hPa 0,0 l/m 0 min 0 min 0 W/m 9,7 km/h (2 Bft) 97,83 %
15.10.2018 02:58 16,7 C 16,1 C 15,6 C 76 % 1008,1 hPa 0,0 l/m 0 min 0 min 0 W/m 9,7 km/h (2 Bft) 100,00 %
15.10.2018 03:00 16,7 C 16,1 C 15,6 C 76 % 1008,1 hPa 0,0 l/m 0 min 0 min 0 W/m 6,4 km/h (2 Bft) 97,87 %
15.10.2018 03:02 16,7 C 16,1 C 15,6 C 76 % 1008,1 hPa 0,0 l/m 0 min 0 min 0 W/m 9,7 km/h (2 Bft) 97,87 %
15.10.2018 03:04 16,8 C 16,1 C 15,6 C 76 % 1008,1 hPa 0,0 l/m 0 min 0 min 0 W/m 6,4 km/h (2 Bft) 100,00 %
15.10.2018 03:08 16,8 C 16,7 C 15,6 C 75 % 1008,1 hPa 0,0 l/m 0 min 0 min 0 W/m 12,9 km/h (3 Bft) 97,85 %
15.10.2018 03:10 16,8 C 16,7 C 15,6 C 75 % 1008,1 hPa 0,0 l/m 0 min 0 min 0 W/m 12,9 km/h (3 Bft) 100,00 %
15.10.2018 03:12 16,8 C 16,7 C 15,6 C 75 % 1008,1 hPa 0,0 l/m 0 min 0 min 0 W/m 9,7 km/h (2 Bft) 100,00 %
15.10.2018 03:14 16,8 C 16,7 C 15,6 C 75 % 1008,1 hPa 0,0 l/m 0 min 0 min 0 W/m 9,7 km/h (2 Bft) 100,00 %
15.10.2018 03:16 16,8 C 16,7 C 15,6 C 75 % 1008,1 hPa 0,0 l/m 0 min 0 min 0 W/m 9,7 km/h (2 Bft) 97,87 %
15.10.2018 03:18 16,8 C 16,7 C 15,6 C 75 % 1008,1 hPa 0,0 l/m 0 min 0 min 0 W/m 9,7 km/h (2 Bft) 100,00 %
15.10.2018 03:20 16,9 C 16,7 C 15,6 C 75 % 1008,0 hPa 0,0 l/m 0 min 0 min 0 W/m 6,4 km/h (2 Bft) 100,00 %
15.10.2018 03:22 16,9 C 16,1 C 15,6 C 75 % 1008,0 hPa 0,0 l/m 0 min 0 min 0 W/m 9,7 km/h (2 Bft) 100,00 %
15.10.2018 03:24 16,9 C 16,1 C 15,6 C 75 % 1008,0 hPa 0,0 l/m 0 min 0 min 0 W/m 9,7 km/h (2 Bft) 100,00 %
15.10.2018 03:26 16,9 C 16,1 C 15,6 C 75 % 1008,0 hPa 0,0 l/m 0 min 0 min 0 W/m 9,7 km/h (2 Bft) 100,00 %
15.10.2018 03:28 16,9 C 16,1 C 15,6 C 75 % 1008,0 hPa 0,0 l/m 0 min 0 min 0 W/m 6,4 km/h (2 Bft) 100,00 %
15.10.2018 03:30 16,9 C 16,1 C 15,0 C 75 % 1008,0 hPa 0,0 l/m 0 min 0 min 0 W/m 9,7 km/h (2 Bft) 100,00 %
15.10.2018 03:32 16,9 C 16,1 C 15,0 C 75 % 1008,0 hPa 0,0 l/m 0 min 0 min 0 W/m 6,4 km/h (2 Bft) 100,00 %
15.10.2018 03:34 16,9 C 16,1 C 15,0 C 75 % 1008,0 hPa 0,0 l/m 0 min 0 min 0 W/m 9,7 km/h (2 Bft) 100,00 %
15.10.2018 03:38 16,9 C 16,1 C 15,0 C 75 % 1007,9 hPa 0,0 l/m 0 min 0 min 0 W/m 6,4 km/h (2 Bft) 99,03 %
15.10.2018 03:40 16,9 C 15,6 C 15,0 C 75 % 1007,9 hPa 0,0 l/m 0 min 0 min 0 W/m 6,4 km/h (2 Bft) 100,00 %
15.10.2018 03:42 16,9 C 15,6 C 15,0 C 75 % 1007,9 hPa 0,0 l/m 0 min 0 min 0 W/m 9,7 km/h (2 Bft) 97,87 %
15.10.2018 03:44 16,9 C 16,1 C 15,0 C 75 % 1007,9 hPa 0,0 l/m 0 min 0 min 0 W/m 9,7 km/h (2 Bft) 97,87 %
15.10.2018 03:46 16,8 C 16,1 C 15,0 C 75 % 1007,9 hPa 0,0 l/m 0 min 0 min 0 W/m 6,4 km/h (2 Bft) 97,87 %
15.10.2018 03:48 16,8 C 16,1 C 15,0 C 75 % 1007,9 hPa 0,0 l/m 0 min 0 min 0 W/m 6,4 km/h (2 Bft) 97,87 %
15.10.2018 03:50 16,8 C 16,1 C 15,0 C 75 % 1007,9 hPa 0,0 l/m 0 min 0 min 0 W/m 9,7 km/h (2 Bft) 100,00 %
15.10.2018 03:52 16,8 C 16,1 C 15,0 C 76 % 1007,9 hPa 0,0 l/m 0 min 0 min 0 W/m 9,7 km/h (2 Bft) 100,00 %
15.10.2018 03:54 16,8 C 16,1 C 15,0 C 76 % 1007,9 hPa 0,0 l/m 0 min 0 min 0 W/m 9,7 km/h (2 Bft) 100,00 %
15.10.2018 03:56 16,8 C 16,1 C 15,0 C 76 % 1007,9 hPa 0,0 l/m 0 min 0 min 0 W/m 9,7 km/h (2 Bft) 97,87 %
15.10.2018 03:58 16,8 C 16,1 C 15,0 C 76 % 1007,8 hPa 0,0 l/m 0 min 0 min 0 W/m 6,4 km/h (2 Bft) 97,87 %
15.10.2018 04:00 16,8 C 16,1 C 15,0 C 76 % 1007,9 hPa 0,0 l/m 0 min 0 min 0 W/m 6,4 km/h (2 Bft) 97,87 %
15.10.2018 04:05 16,8 C 16,1 C 15,0 C 76 % 1008,0 hPa 0,0 l/m 0 min 0 min 0 W/m 6,4 km/h (2 Bft) 100,00 %
15.10.2018 04:06 16,7 C 16,1 C 15,0 C 76 % 1008,0 hPa 0,0 l/m 0 min 0 min 0 W/m 6,4 km/h (2 Bft) 95,65 %
15.10.2018 04:08 16,7 C 16,1 C 15,0 C 76 % 1008,1 hPa 0,0 l/m 0 min 0 min 0 W/m 9,7 km/h (2 Bft) 97,92 %
15.10.2018 04:10 16,7 C 16,1 C 15,0 C 76 % 1008,0 hPa 0,0 l/m 0 min 0 min 0 W/m 6,4 km/h (2 Bft) 97,87 %
15.10.2018 04:12 16,7 C 16,1 C 15,0 C 76 % 1008,0 hPa 0,0 l/m 0 min 0 min 0 W/m 6,4 km/h (2 Bft) 97,87 %
15.10.2018 04:14 16,7 C 16,1 C 15,0 C 76 % 1008,0 hPa 0,0 l/m 0 min 0 min 0 W/m 9,7 km/h (2 Bft) 97,83 %
15.10.2018 04:16 16,7 C 16,1 C 15,0 C 76 % 1008,0 hPa 0,0 l/m 0 min 0 min 0 W/m 9,7 km/h (2 Bft) 97,87 %
15.10.2018 04:18 16,7 C 16,1 C 15,0 C 76 % 1008,0 hPa 0,0 l/m 0 min 0 min 0 W/m 9,7 km/h (2 Bft) 97,87 %
15.10.2018 04:20 16,7 C 16,1 C 15,0 C 76 % 1008,0 hPa 0,0 l/m 0 min 0 min 0 W/m 6,4 km/h (2 Bft) 95,83 %
15.10.2018 04:22 16,7 C 16,1 C 15,0 C 76 % 1008,0 hPa 0,0 l/m 0 min 0 min 0 W/m 6,4 km/h (2 Bft) 97,92 %
15.10.2018 04:24 16,7 C 16,1 C 15,0 C 76 % 1008,0 hPa 0,0 l/m 0 min 0 min 0 W/m 9,7 km/h (2 Bft) 97,83 %
15.10.2018 04:26 16,7 C 16,1 C 15,0 C 76 % 1008,1 hPa 0,0 l/m 0 min 0 min 0 W/m 9,7 km/h (2 Bft) 97,87 %
15.10.2018 04:28 16,7 C 16,1 C 15,0 C 76 % 1008,1 hPa 0,0 l/m 0 min 0 min 0 W/m 9,7 km/h (2 Bft) 97,87 %
15.10.2018 04:30 16,7 C 16,1 C 15,0 C 76 % 1008,1 hPa 0,0 l/m 0 min 0 min 0 W/m 12,9 km/h (3 Bft) 97,87 %
15.10.2018 04:32 16,7 C 16,1 C 15,6 C 76 % 1008,1 hPa 0,0 l/m 0 min 0 min 0 W/m 9,7 km/h (2 Bft) 97,87 %
15.10.2018 04:34 16,7 C 16,1 C 15,6 C 76 % 1008,1 hPa 0,0 l/m 0 min 0 min 0 W/m 12,9 km/h (3 Bft) 97,87 %
15.10.2018 04:38 16,7 C 16,1 C 15,6 C 76 % 1008,1 hPa 0,0 l/m 0 min 0 min 0 W/m 12,9 km/h (3 Bft) 95,88 %
15.10.2018 04:40 16,8 C 16,1 C 15,6 C 76 % 1008,2 hPa 0,0 l/m 0 min 0 min 0 W/m 9,7 km/h (2 Bft) 95,74 %
15.10.2018 04:42 16,8 C 16,1 C 15,6 C 76 % 1008,1 hPa 0,0 l/m 0 min 0 min 0 W/m 12,9 km/h (3 Bft) 95,74 %
15.10.2018 04:44 16,8 C 16,7 C 15,6 C 75 % 1008,2 hPa 0,0 l/m 0 min 0 min 0 W/m 12,9 km/h (3 Bft) 93,62 %
15.10.2018 04:46 16,8 C 16,7 C 15,6 C 75 % 1008,1 hPa 0,0 l/m 0 min 0 min 0 W/m 9,7 km/h (2 Bft) 95,74 %
15.10.2018 04:48 16,8 C 16,7 C 15,6 C 75 % 1008,1 hPa 0,0 l/m 0 min 0 min 0 W/m 9,7 km/h (2 Bft) 97,83 %
15.10.2018 04:50 16,8 C 16,7 C 15,6 C 75 % 1008,1 hPa 0,0 l/m 0 min 0 min 0 W/m 12,9 km/h (3 Bft) 97,87 %
15.10.2018 04:52 16,8 C 16,7 C 15,6 C 75 % 1008,1 hPa 0,0 l/m 0 min 0 min 0 W/m 12,9 km/h (3 Bft) 95,83 %
15.10.2018 04:54 16,8 C 16,7 C 15,6 C 75 % 1008,1 hPa 0,0 l/m 0 min 0 min 0 W/m 9,7 km/h (2 Bft) 97,06 %
15.10.2018 04:56 16,8 C 16,7 C 15,6 C 75 % 1008,1 hPa 0,0 l/m 0 min 0 min 0 W/m 9,7 km/h (2 Bft) 95,74 %
15.10.2018 04:58 16,8 C 16,7 C 15,6 C 75 % 1008,1 hPa 0,0 l/m 0 min 0 min 0 W/m 9,7 km/h (2 Bft) 97,87 %
15.10.2018 05:00 16,8 C 16,7 C 15,6 C 75 % 1008,1 hPa 0,0 l/m 0 min 0 min 0 W/m 9,7 km/h (2 Bft) 95,74 %
15.10.2018 05:02 16,9 C 16,7 C 15,6 C 75 % 1008,2 hPa 0,0 l/m 0 min 0 min 0 W/m 9,7 km/h (2 Bft) 98,00 %
15.10.2018 05:04 16,9 C 16,7 C 15,6 C 75 % 1008,2 hPa 0,0 l/m 0 min 0 min 0 W/m 9,7 km/h (2 Bft) 97,67 %
15.10.2018 05:05 16,9 C 16,7 C 15,6 C 75 % 1008,1 hPa 0,0 l/m 0 min 0 min 0 W/m 9,7 km/h (2 Bft) 100,00 %
15.10.2018 05:10 16,9 C 16,7 C 15,6 C 74 % 1008,2 hPa 0,0 l/m 0 min 0 min 0 W/m 12,9 km/h (3 Bft) 99,12 %
15.10.2018 05:12 16,9 C 16,7 C 15,6 C 74 % 1008,2 hPa 0,0 l/m 0 min 0 min 0 W/m 6,4 km/h (2 Bft) 100,00 %
15.10.2018 05:14 16,9 C 16,7 C 15,6 C 74 % 1008,2 hPa 0,0 l/m 0 min 0 min 0 W/m 9,7 km/h (2 Bft) 97,87 %
15.10.2018 05:16 16,9 C 16,7 C 15,6 C 74 % 1008,2 hPa 0,0 l/m 0 min 0 min 0 W/m 12,9 km/h (3 Bft) 100,00 %
15.10.2018 05:18 16,9 C 16,7 C 15,6 C 74 % 1008,2 hPa 0,0 l/m 0 min 0 min 0 W/m 9,7 km/h (2 Bft) 93,62 %
15.10.2018 05:20 16,9 C 16,7 C 15,6 C 74 % 1008,2 hPa 0,0 l/m 0 min 0 min 0 W/m 6,4 km/h (2 Bft) 100,00 %
15.10.2018 05:22 16,9 C 16,7 C 15,6 C 74 % 1008,3 hPa 0,0 l/m 0 min 0 min 0 W/m 9,7 km/h (2 Bft) 97,87 %
15.10.2018 05:24 16,9 C 16,7 C 15,6 C 74 % 1008,3 hPa 0,0 l/m 0 min 0 min 0 W/m 9,7 km/h (2 Bft) 94,29 %
15.10.2018 05:26 17,0 C 16,7 C 15,6 C 74 % 1008,3 hPa 0,0 l/m 0 min 0 min 0 W/m 9,7 km/h (2 Bft) 97,87 %
15.10.2018 05:28 17,0 C 16,7 C 15,6 C 74 % 1008,4 hPa 0,0 l/m 0 min 0 min 0 W/m 9,7 km/h (2 Bft) 97,87 %
15.10.2018 05:30 17,0 C 16,7 C 15,6 C 73 % 1008,3 hPa 0,0 l/m 0 min 0 min 0 W/m 12,9 km/h (3 Bft) 97,83 %
15.10.2018 05:32 17,0 C 16,7 C 15,6 C 73 % 1008,3 hPa 0,0 l/m 0 min 0 min 0 W/m 9,7 km/h (2 Bft) 97,87 %
15.10.2018 05:34 17,0 C 16,7 C 15,6 C 73 % 1008,3 hPa 0,0 l/m 0 min 0 min 0 W/m 12,9 km/h (3 Bft) 95,74 %
15.10.2018 05:38 17,0 C 16,7 C 15,6 C 73 % 1008,4 hPa 0,0 l/m 0 min 0 min 0 W/m 12,9 km/h (3 Bft) 96,00 %
15.10.2018 05:40 17,0 C 16,7 C 15,6 C 73 % 1008,3 hPa 0,0 l/m 0 min 0 min 0 W/m 9,7 km/h (2 Bft) 97,87 %
15.10.2018 05:42 17,0 C 16,7 C 15,6 C 73 % 1008,4 hPa 0,0 l/m 0 min 0 min 0 W/m 9,7 km/h (2 Bft) 97,87 %
15.10.2018 05:44 17,0 C 16,7 C 15,6 C 73 % 1008,4 hPa 0,0 l/m 0 min 0 min 0 W/m 9,7 km/h (2 Bft) 97,87 %
15.10.2018 05:46 17,0 C 16,7 C 15,6 C 73 % 1008,4 hPa 0,0 l/m 0 min 0 min 0 W/m 9,7 km/h (2 Bft) 97,87 %
15.10.2018 05:48 17,0 C 16,7 C 15,6 C 73 % 1008,4 hPa 0,0 l/m 0 min 0 min 0 W/m 9,7 km/h (2 Bft) 97,56 %
15.10.2018 05:50 17,0 C 16,7 C 15,6 C 73 % 1008,4 hPa 0,0 l/m 0 min 0 min 0 W/m 6,4 km/h (2 Bft) 97,87 %
15.10.2018 05:52 17,1 C 16,7 C 15,6 C 73 % 1008,4 hPa 0,0 l/m 0 min 0 min 0 W/m 12,9 km/h (3 Bft) 96,23 %
15.10.2018 05:54 17,0 C 16,7 C 15,6 C 73 % 1008,4 hPa 0,0 l/m 0 min 0 min 0 W/m 9,7 km/h (2 Bft) 97,87 %
15.10.2018 05:56 17,1 C 16,7 C 15,6 C 73 % 1008,4 hPa 0,0 l/m 0 min 0 min 0 W/m 6,4 km/h (2 Bft) 97,87 %
15.10.2018 05:58 17,1 C 16,7 C 15,6 C 73 % 1008,4 hPa 0,0 l/m 0 min 0 min 0 W/m 6,4 km/h (2 Bft) 97,87 %
15.10.2018 06:00 17,0 C 16,1 C 15,6 C 72 % 1008,4 hPa 0,0 l/m 0 min 0 min 0 W/m 6,4 km/h (2 Bft) 97,83 %
15.10.2018 06:02 17,0 C 16,7 C 15,6 C 72 % 1008,4 hPa 0,0 l/m 0 min 0 min 0 W/m 6,4 km/h (2 Bft) 97,87 %
15.10.2018 06:04 17,0 C 16,7 C 15,6 C 72 % 1008,4 hPa 0,0 l/m 0 min 0 min 0 W/m 6,4 km/h (2 Bft) 95,74 %
15.10.2018 06:08 17,0 C 16,1 C 15,0 C 72 % 1008,4 hPa 0,0 l/m 0 min 0 min 0 W/m 9,7 km/h (2 Bft) 97,89 %
15.10.2018 06:10 17,0 C 16,1 C 15,6 C 72 % 1008,5 hPa 0,0 l/m 0 min 0 min 0 W/m 9,7 km/h (2 Bft) 97,87 %
15.10.2018 06:12 17,0 C 16,1 C 15,6 C 72 % 1008,5 hPa 0,0 l/m 0 min 0 min 0 W/m 9,7 km/h (2 Bft) 97,83 %
15.10.2018 06:14 17,0 C 16,1 C 15,0 C 72 % 1008,5 hPa 0,0 l/m 0 min 0 min 0 W/m 6,4 km/h (2 Bft) 97,87 %
15.10.2018 06:16 17,0 C 16,1 C 15,0 C 72 % 1008,5 hPa 0,0 l/m 0 min 0 min 0 W/m 6,4 km/h (2 Bft) 95,74 %
15.10.2018 06:18 17,0 C 16,1 C 15,0 C 72 % 1008,5 hPa 0,0 l/m 0 min 0 min 0 W/m 6,4 km/h (2 Bft) 100,00 %
15.10.2018 06:20 17,0 C 16,1 C 15,0 C 72 % 1008,5 hPa 0,0 l/m 0 min 0 min 0 W/m 9,7 km/h (2 Bft) 100,00 %
15.10.2018 06:22 17,0 C 16,1 C 15,0 C 72 % 1008,6 hPa 0,0 l/m 0 min 0 min 0 W/m 12,9 km/h (3 Bft) 97,87 %
15.10.2018 06:24 17,0 C 16,1 C 15,6 C 72 % 1008,6 hPa 0,0 l/m 0 min 0 min 0 W/m 9,7 km/h (2 Bft) 97,87 %
15.10.2018 06:26 16,9 C 16,1 C 15,0 C 72 % 1008,6 hPa 0,0 l/m 0 min 0 min 0 W/m 9,7 km/h (2 Bft) 100,00 %
15.10.2018 06:28 16,9 C 16,1 C 15,6 C 72 % 1008,6 hPa 0,0 l/m 0 min 0 min 0 W/m 9,7 km/h (2 Bft) 100,00 %
15.10.2018 06:30 16,9 C 16,1 C 15,6 C 72 % 1008,7 hPa 0,0 l/m 0 min 0 min 0 W/m 9,7 km/h (2 Bft) 100,00 %
15.10.2018 06:32 16,9 C 16,1 C 15,6 C 72 % 1008,7 hPa 0,0 l/m 0 min 0 min 0 W/m 9,7 km/h (2 Bft) 94,00 %
15.10.2018 06:34 16,9 C 16,1 C 15,0 C 72 % 1008,6 hPa 0,0 l/m 0 min 0 min 0 W/m 6,4 km/h (2 Bft) 97,83 %
15.10.2018 06:38 16,9 C 16,1 C 15,0 C 72 % 1008,6 hPa 0,0 l/m 0 min 0 min 0 W/m 12,9 km/h (3 Bft) 97,67 %
15.10.2018 06:40 16,9 C 16,1 C 15,0 C 72 % 1008,6 hPa 0,0 l/m 0 min 0 min 0 W/m 6,4 km/h (2 Bft) 100,00 %
15.10.2018 06:42 16,9 C 16,1 C 15,0 C 72 % 1008,7 hPa 0,0 l/m 0 min 0 min 0 W/m 6,4 km/h (2 Bft) 97,87 %
15.10.2018 06:44 16,9 C 16,1 C 15,0 C 72 % 1008,7 hPa 0,0 l/m 0 min 0 min 0 W/m 9,7 km/h (2 Bft) 100,00 %
15.10.2018 06:46 16,9 C 16,1 C 15,0 C 72 % 1008,6 hPa 0,0 l/m 0 min 0 min 0 W/m 6,4 km/h (2 Bft) 100,00 %
15.10.2018 06:48 16,9 C 16,1 C 15,0 C 72 % 1008,6 hPa 0,0 l/m 0 min 0 min 0 W/m 6,4 km/h (2 Bft) 100,00 %
15.10.2018 06:50 16,8 C 16,1 C 15,0 C 72 % 1008,6 hPa 0,0 l/m 0 min 0 min 0 W/m 6,4 km/h (2 Bft) 97,92 %
15.10.2018 06:52 16,8 C 16,1 C 15,0 C 72 % 1008,6 hPa 0,0 l/m 0 min 0 min 0 W/m 6,4 km/h (2 Bft) 97,83 %
15.10.2018 06:54 16,8 C 16,1 C 15,0 C 72 % 1008,7 hPa 0,0 l/m 0 min 0 min 0 W/m 6,4 km/h (2 Bft) 97,87 %
15.10.2018 06:56 16,8 C 16,1 C 15,0 C 72 % 1008,8 hPa 0,0 l/m 0 min 0 min 0 W/m 6,4 km/h (2 Bft) 95,74 %
15.10.2018 06:58 16,8 C 15,6 C 15,0 C 72 % 1008,8 hPa 0,0 l/m 0 min 0 min 0 W/m 6,4 km/h (2 Bft) 97,87 %
15.10.2018 07:00 16,8 C 15,6 C 15,0 C 72 % 1008,8 hPa 0,0 l/m 0 min 0 min 0 W/m 6,4 km/h (2 Bft) 97,87 %
15.10.2018 07:02 16,8 C 15,6 C 15,0 C 72 % 1008,8 hPa 0,0 l/m 0 min 0 min 0 W/m 6,4 km/h (2 Bft) 97,83 %
15.10.2018 07:04 16,8 C 15,6 C 15,0 C 72 % 1008,8 hPa 0,0 l/m 0 min 0 min 0 W/m 6,4 km/h (2 Bft) 97,87 %
15.10.2018 07:08 16,7 C 15,6 C 15,0 C 72 % 1008,8 hPa 0,0 l/m 0 min 0 min 0 W/m 6,4 km/h (2 Bft) 96,81 %
15.10.2018 07:10 16,7 C 15,6 C 15,0 C 72 % 1008,7 hPa 0,0 l/m 0 min 0 min 0 W/m 9,7 km/h (2 Bft) 93,62 %
15.10.2018 07:12 16,7 C 15,6 C 15,0 C 72 % 1008,8 hPa 0,0 l/m 0 min 0 min 0 W/m 6,4 km/h (2 Bft) 97,87 %
15.10.2018 07:14 16,7 C 15,6 C 15,0 C 72 % 1008,8 hPa 0,0 l/m 0 min 0 min 0 W/m 9,7 km/h (2 Bft) 95,65 %
15.10.2018 07:16 16,6 C 15,6 C 15,0 C 73 % 1008,8 hPa 0,0 l/m 0 min 0 min 0 W/m 6,4 km/h (2 Bft) 95,74 %
15.10.2018 07:18 16,6 C 15,6 C 15,0 C 73 % 1008,8 hPa 0,0 l/m 0 min 0 min 0 W/m 6,4 km/h (2 Bft) 95,74 %
15.10.2018 07:20 16,6 C 15,0 C 14,4 C 73 % 1008,8 hPa 0,0 l/m 0 min 0 min 0 W/m 9,7 km/h (2 Bft) 95,74 %
15.10.2018 07:22 16,6 C 15,0 C 14,4 C 73 % 1008,8 hPa 0,0 l/m 0 min 0 min 0 W/m 3,2 km/h (1 Bft) 94,34 %
15.10.2018 07:24 16,5 C 15,0 C 14,4 C 73 % 1008,8 hPa 0,0 l/m 0 min 0 min 0 W/m 6,4 km/h (2 Bft) 93,62 %
15.10.2018 07:26 16,5 C 15,0 C 14,4 C 73 % 1008,9 hPa 0,0 l/m 0 min 0 min 0 W/m 6,4 km/h (2 Bft) 93,62 %
15.10.2018 07:28 16,5 C 15,0 C 14,4 C 73 % 1008,8 hPa 0,0 l/m 0 min 0 min 0 W/m 6,4 km/h (2 Bft) 95,74 %
15.10.2018 07:30 16,4 C 15,0 C 14,4 C 73 % 1008,8 hPa 0,0 l/m 0 min 0 min 0 W/m 6,4 km/h (2 Bft) 95,74 %
15.10.2018 07:32 16,4 C 15,0 C 14,4 C 73 % 1008,9 hPa 0,0 l/m 0 min 0 min 0 W/m 6,4 km/h (2 Bft) 91,84 %
15.10.2018 07:34 16,4 C 15,0 C 14,4 C 73 % 1008,9 hPa 0,0 l/m 0 min 0 min 0 W/m 6,4 km/h (2 Bft) 91,49 %
15.10.2018 07:38 16,3 C 15,0 C 14,4 C 74 % 1008,9 hPa 0,0 l/m 0 min 0 min 0 W/m 9,7 km/h (2 Bft) 95,74 %
15.10.2018 07:40 16,3 C 15,0 C 14,4 C 74 % 1008,9 hPa 0,0 l/m 0 min 0 min 0 W/m 6,4 km/h (2 Bft) 97,87 %
15.10.2018 07:42 16,2 C 15,0 C 14,4 C 74 % 1009,0 hPa 0,0 l/m 0 min 0 min 0 W/m 9,7 km/h (2 Bft) 97,83 %
15.10.2018 07:44 16,2 C 15,0 C 14,4 C 74 % 1008,9 hPa 0,0 l/m 0 min 0 min 0 W/m 6,4 km/h (2 Bft) 97,87 %
15.10.2018 07:46 16,2 C 15,0 C 14,4 C 74 % 1009,0 hPa 0,0 l/m 0 min 0 min 0 W/m 6,4 km/h (2 Bft) 97,87 %
15.10.2018 07:48 16,1 C 14,4 C 14,4 C 74 % 1009,0 hPa 0,0 l/m 0 min 0 min 0 W/m 6,4 km/h (2 Bft) 95,74 %
15.10.2018 07:50 16,1 C 14,4 C 14,4 C 74 % 1009,0 hPa 0,0 l/m 0 min 0 min 0 W/m 9,7 km/h (2 Bft) 95,74 %
15.10.2018 07:52 16,1 C 14,4 C 13,9 C 74 % 1009,1 hPa 0,0 l/m 0 min 0 min 0 W/m 6,4 km/h (2 Bft) 97,92 %
15.10.2018 07:54 16,0 C 14,4 C 13,9 C 74 % 1009,1 hPa 0,0 l/m 0 min 0 min 0 W/m 9,7 km/h (2 Bft) 97,14 %
15.10.2018 07:56 16,0 C 14,4 C 13,9 C 75 % 1009,1 hPa 0,0 l/m 0 min 0 min 3 W/m 9,7 km/h (2 Bft) 95,74 %
15.10.2018 07:58 15,9 C 14,4 C 13,9 C 75 % 1009,2 hPa 0,0 l/m 0 min 0 min 5 W/m 6,4 km/h (2 Bft) 95,65 %
15.10.2018 08:00 15,9 C 14,4 C 13,9 C 75 % 1009,2 hPa 0,0 l/m 0 min 0 min 5 W/m 6,4 km/h (2 Bft) 95,74 %
15.10.2018 08:02 15,9 C 14,4 C 13,9 C 75 % 1009,3 hPa 0,0 l/m 0 min 0 min 5 W/m 6,4 km/h (2 Bft) 100,00 %
15.10.2018 08:04 15,8 C 14,4 C 13,9 C 75 % 1009,3 hPa 0,0 l/m 0 min 0 min 7 W/m 9,7 km/h (2 Bft) 100,00 %
15.10.2018 08:08 15,7 C 14,4 C 13,9 C 75 % 1009,3 hPa 0,0 l/m 0 min 0 min 8 W/m 6,4 km/h (2 Bft) 97,85 %
15.10.2018 08:10 15,7 C 14,4 C 13,9 C 75 % 1009,3 hPa 0,0 l/m 0 min 0 min 10 W/m 12,9 km/h (3 Bft) 100,00 %
15.10.2018 08:12 15,7 C 14,4 C 13,9 C 75 % 1009,3 hPa 0,0 l/m 0 min 0 min 11 W/m 9,7 km/h (2 Bft) 100,00 %
15.10.2018 08:14 15,6 C 14,4 C 13,9 C 76 % 1009,3 hPa 0,0 l/m 0 min 0 min 12 W/m 9,7 km/h (2 Bft) 97,87 %
15.10.2018 08:16 15,6 C 14,4 C 13,9 C 76 % 1009,3 hPa 0,0 l/m 0 min 0 min 14 W/m 12,9 km/h (3 Bft) 100,00 %
15.10.2018 08:18 15,5 C 14,4 C 13,9 C 76 % 1009,4 hPa 0,0 l/m 0 min 0 min 16 W/m 9,7 km/h (2 Bft) 100,00 %
15.10.2018 08:20 15,5 C 14,4 C 13,9 C 76 % 1009,4 hPa 0,0 l/m 0 min 0 min 19 W/m 6,4 km/h (2 Bft) 100,00 %
15.10.2018 08:22 15,4 C 14,4 C 13,9 C 76 % 1009,4 hPa 0,0 l/m 0 min 0 min 21 W/m 6,4 km/h (2 Bft) 97,87 %
15.10.2018 08:24 15,4 C 14,4 C 13,9 C 76 % 1009,4 hPa 0,0 l/m 0 min 0 min 21 W/m 6,4 km/h (2 Bft) 100,00 %
15.10.2018 08:26 15,4 C 14,4 C 13,9 C 76 % 1009,4 hPa 0,0 l/m 0 min 0 min 21 W/m 6,4 km/h (2 Bft) 100,00 %
15.10.2018 08:28 15,4 C 14,4 C 13,9 C 76 % 1009,4 hPa 0,0 l/m 0 min 0 min 21 W/m 3,2 km/h (1 Bft) 100,00 %
15.10.2018 08:30 15,3 C 14,4 C 13,9 C 77 % 1009,4 hPa 0,0 l/m 0 min 0 min 21 W/m 6,4 km/h (2 Bft) 100,00 %
15.10.2018 08:32 15,3 C 14,4 C 13,9 C 77 % 1009,4 hPa 0,0 l/m 0 min 0 min 23 W/m 6,4 km/h (2 Bft) 100,00 %
15.10.2018 08:34 15,3 C 14,4 C 13,9 C 77 % 1009,5 hPa 0,0 l/m 0 min 0 min 23 W/m 6,4 km/h (2 Bft) 100,00 %
15.10.2018 08:38 15,3 C 14,4 C 13,9 C 77 % 1009,4 hPa 0,0 l/m 0 min 0 min 23 W/m 9,7 km/h (2 Bft) 100,00 %
15.10.2018 08:40 15,2 C 14,4 C 13,9 C 77 % 1009,5 hPa 0,0 l/m 0 min 0 min 23 W/m 6,4 km/h (2 Bft) 97,87 %
15.10.2018 08:42 15,2 C 14,4 C 13,9 C 77 % 1009,5 hPa 0,0 l/m 0 min 0 min 23 W/m 9,7 km/h (2 Bft) 97,83 %
15.10.2018 08:44 15,2 C 15,0 C 13,9 C 77 % 1009,5 hPa 0,0 l/m 0 min 0 min 23 W/m 12,9 km/h (3 Bft) 100,00 %
15.10.2018 08:46 15,2 C 15,0 C 13,9 C 78 % 1009,5 hPa 0,0 l/m 0 min 0 min 23 W/m 9,7 km/h (2 Bft) 100,00 %
15.10.2018 08:48 15,2 C 15,0 C 13,9 C 78 % 1009,5 hPa 0,0 l/m 0 min 0 min 25 W/m 9,7 km/h (2 Bft) 100,00 %
15.10.2018 08:50 15,2 C 15,0 C 13,9 C 78 % 1009,6 hPa 0,0 l/m 0 min 0 min 25 W/m 9,7 km/h (2 Bft) 97,87 %
15.10.2018 08:52 15,2 C 15,0 C 13,9 C 78 % 1009,6 hPa 0,0 l/m 0 min 0 min 25 W/m 9,7 km/h (2 Bft) 95,83 %
15.10.2018 08:54 15,2 C 15,0 C 13,9 C 78 % 1009,6 hPa 0,0 l/m 0 min 0 min 26 W/m 6,4 km/h (2 Bft) 97,83 %
15.10.2018 08:56 15,2 C 15,0 C 13,9 C 78 % 1009,7 hPa 0,0 l/m 0 min 0 min 27 W/m 6,4 km/h (2 Bft) 97,87 %
15.10.2018 08:58 15,2 C 15,0 C 13,9 C 78 % 1009,6 hPa 0,0 l/m 0 min 0 min 28 W/m 9,7 km/h (2 Bft) 97,87 %
15.10.2018 09:00 15,2 C 15,0 C 13,9 C 78 % 1009,6 hPa 0,0 l/m 0 min 0 min 28 W/m 12,9 km/h (3 Bft) 97,87 %
15.10.2018 09:02 15,3 C 15,0 C 14,4 C 79 % 1009,7 hPa 0,0 l/m 0 min 0 min 30 W/m 9,7 km/h (2 Bft) 95,74 %
15.10.2018 09:04 15,3 C 15,0 C 14,4 C 79 % 1009,7 hPa 0,0 l/m 0 min 0 min 30 W/m 9,7 km/h (2 Bft) 97,87 %
15.10.2018 09:08 15,3 C 15,6 C 14,4 C 79 % 1009,8 hPa 0,0 l/m 0 min 0 min 32 W/m 9,7 km/h (2 Bft) 97,62 %
15.10.2018 09:10 15,3 C 15,6 C 14,4 C 79 % 1009,8 hPa 0,0 l/m 0 min 0 min 33 W/m 9,7 km/h (2 Bft) 97,87 %
15.10.2018 09:12 15,4 C 15,6 C 14,4 C 79 % 1009,8 hPa 0,0 l/m 0 min 0 min 33 W/m 16,1 km/h (3 Bft) 95,74 %
15.10.2018 09:14 15,4 C 15,6 C 14,4 C 79 % 1009,9 hPa 0,0 l/m 0 min 0 min 35 W/m 9,7 km/h (2 Bft) 97,87 %
15.10.2018 09:16 15,4 C 15,6 C 14,4 C 79 % 1009,9 hPa 0,0 l/m 0 min 0 min 35 W/m 12,9 km/h (3 Bft) 97,87 %
15.10.2018 09:18 15,5 C 15,6 C 14,4 C 79 % 1009,9 hPa 0,0 l/m 0 min 0 min 36 W/m 12,9 km/h (3 Bft) 97,87 %
15.10.2018 09:20 15,5 C 15,6 C 14,4 C 79 % 1010,0 hPa 0,0 l/m 0 min 0 min 37 W/m 12,9 km/h (3 Bft) 95,65 %
15.10.2018 09:22 15,6 C 15,6 C 14,4 C 79 % 1010,0 hPa 0,0 l/m 0 min 0 min 39 W/m 9,7 km/h (2 Bft) 97,87 %
15.10.2018 09:24 15,6 C 15,6 C 14,4 C 79 % 1009,9 hPa 0,0 l/m 0 min 0 min 39 W/m 9,7 km/h (2 Bft) 97,87 %
15.10.2018 09:26 15,6 C 15,6 C 14,4 C 79 % 1010,0 hPa 0,0 l/m 0 min 0 min 40 W/m 12,9 km/h (3 Bft) 97,87 %
15.10.2018 09:28 15,7 C 16,1 C 14,4 C 79 % 1009,9 hPa 0,0 l/m 0 min 0 min 42 W/m 9,7 km/h (2 Bft) 95,74 %
15.10.2018 09:30 15,7 C 16,1 C 14,4 C 79 % 1010,1 hPa 0,0 l/m 0 min 0 min 43 W/m 16,1 km/h (3 Bft) 97,83 %
15.10.2018 09:32 15,7 C 16,1 C 15,0 C 78 % 1010,1 hPa 0,0 l/m 0 min 0 min 45 W/m 9,7 km/h (2 Bft) 97,87 %
15.10.2018 09:34 15,8 C 16,1 C 15,0 C 78 % 1010,2 hPa 0,0 l/m 0 min 0 min 47 W/m 12,9 km/h (3 Bft) 97,87 %
15.10.2018 09:38 15,8 C 16,1 C 15,0 C 78 % 1010,1 hPa 0,0 l/m 0 min 0 min 49 W/m 12,9 km/h (3 Bft) 95,79 %
15.10.2018 09:40 15,9 C 16,1 C 15,0 C 78 % 1010,0 hPa 0,0 l/m 0 min 0 min 52 W/m 16,1 km/h (3 Bft) 93,62 %
15.10.2018 09:42 15,9 C 16,7 C 15,0 C 78 % 1010,0 hPa 0,0 l/m 0 min 0 min 65 W/m 9,7 km/h (2 Bft) 95,65 %
15.10.2018 09:44 16,0 C 16,7 C 15,0 C 78 % 1010,1 hPa 0,0 l/m 0 min 0 min 94 W/m 12,9 km/h (3 Bft) 95,74 %
15.10.2018 09:46 16,1 C 16,7 C 15,0 C 78 % 1010,1 hPa 0,0 l/m 0 min 0 min 88 W/m 12,9 km/h (3 Bft) 95,74 %
15.10.2018 09:48 16,1 C 16,7 C 15,0 C 77 % 1010,1 hPa 0,0 l/m 0 min 0 min 81 W/m 9,7 km/h (2 Bft) 93,62 %
15.10.2018 09:50 16,2 C 17,2 C 15,0 C 77 % 1010,3 hPa 0,0 l/m 0 min 0 min 107 W/m 12,9 km/h (3 Bft) 97,87 %
15.10.2018 09:52 16,2 C 17,8 C 15,0 C 77 % 1010,3 hPa 0,0 l/m 0 min 0 min 96 W/m 9,7 km/h (2 Bft) 97,92 %
15.10.2018 09:54 16,3 C 17,8 C 15,0 C 77 % 1010,2 hPa 0,0 l/m 0 min 0 min 86 W/m 16,1 km/h (3 Bft) 95,65 %
15.10.2018 09:56 16,3 C 18,3 C 15,0 C 77 % 1010,3 hPa 0,0 l/m 0 min 0 min 92 W/m 12,9 km/h (3 Bft) 97,87 %
15.10.2018 09:58 16,4 C 19,4 C 15,6 C 77 % 1010,3 hPa 0,0 l/m 0 min 0 min 98 W/m 9,7 km/h (2 Bft) 93,62 %
15.10.2018 10:00 16,6 C 21,1 C 15,6 C 77 % 1010,3 hPa 0,0 l/m 0 min 0 min 99 W/m 9,7 km/h (2 Bft) 95,74 %
15.10.2018 10:02 16,6 C 22,2 C 15,6 C 77 % 1010,3 hPa 0,0 l/m 0 min 0 min 100 W/m 9,7 km/h (2 Bft) 95,74 %
15.10.2018 10:04 16,7 C 21,7 C 15,6 C 76 % 1010,4 hPa 0,0 l/m 0 min 0 min 123 W/m 16,1 km/h (3 Bft) 95,74 %
15.10.2018 10:08 17,0 C 22,8 C 16,1 C 75 % 1010,4 hPa 0,0 l/m 0 min 0 min 98 W/m 16,1 km/h (3 Bft) 94,85 %
15.10.2018 10:10 17,1 C 22,8 C 16,1 C 75 % 1010,4 hPa 0,0 l/m 0 min 0 min 96 W/m 16,1 km/h (3 Bft) 95,74 %
15.10.2018 10:12 17,3 C 23,9 C 16,1 C 74 % 1010,5 hPa 0,0 l/m 0 min 0 min 104 W/m 9,7 km/h (2 Bft) 93,62 %
15.10.2018 10:14 17,4 C 23,9 C 16,1 C 74 % 1010,5 hPa 0,0 l/m 0 min 0 min 115 W/m 9,7 km/h (2 Bft) 93,62 %
15.10.2018 10:16 17,6 C 24,4 C 16,1 C 74 % 1010,4 hPa 0,0 l/m 0 min 0 min 118 W/m 9,7 km/h (2 Bft) 93,62 %
15.10.2018 10:18 17,8 C 25,0 C 16,1 C 73 % 1010,4 hPa 0,0 l/m 0 min 0 min 117 W/m 16,1 km/h (3 Bft) 95,74 %
15.10.2018 10:20 17,9 C 24,4 C 16,7 C 73 % 1010,5 hPa 0,0 l/m 0 min 0 min 112 W/m 16,1 km/h (3 Bft) 95,74 %
15.10.2018 10:22 18,1 C 25,0 C 16,7 C 72 % 1010,5 hPa 0,0 l/m 0 min 0 min 109 W/m 12,9 km/h (3 Bft) 93,48 %
15.10.2018 10:24 18,2 C 25,6 C 16,7 C 72 % 1010,5 hPa 0,0 l/m 0 min 0 min 108 W/m 9,7 km/h (2 Bft) 95,74 %
15.10.2018 10:26 18,4 C 25,6 C 16,7 C 71 % 1010,5 hPa 0,0 l/m 0 min 0 min 117 W/m 16,1 km/h (3 Bft) 95,74 %
15.10.2018 10:28 18,6 C 25,6 C 16,7 C 70 % 1010,5 hPa 0,0 l/m 0 min 0 min 147 W/m 16,1 km/h (3 Bft) 91,49 %
15.10.2018 10:30 18,7 C 25,0 C 16,7 C 69 % 1010,5 hPa 0,0 l/m 2 min 0 min 176 W/m 12,9 km/h (3 Bft) 95,74 %
15.10.2018 10:32 18,9 C 25,0 C 16,7 C 69 % 1010,5 hPa 0,0 l/m 0 min 0 min 149 W/m 12,9 km/h (3 Bft) 95,65 %
15.10.2018 10:34 19,1 C 24,4 C 16,7 C 69 % 1010,5 hPa 0,0 l/m 0 min 0 min 147 W/m 12,9 km/h (3 Bft) 100,00 %
15.10.2018 10:38 19,4 C 25,6 C 16,7 C 68 % 1010,6 hPa 0,0 l/m 0 min 0 min 123 W/m 16,1 km/h (3 Bft) 97,87 %
15.10.2018 10:40 19,6 C 26,1 C 16,7 C 67 % 1010,5 hPa 0,0 l/m 0 min 0 min 148 W/m 12,9 km/h (3 Bft) 100,00 %
15.10.2018 10:42 19,7 C 26,1 C 16,7 C 66 % 1010,5 hPa 0,0 l/m 0 min 0 min 171 W/m 12,9 km/h (3 Bft) 95,74 %
15.10.2018 10:44 19,9 C 27,2 C 17,2 C 67 % 1010,6 hPa 0,0 l/m 2 min 0 min 225 W/m 6,4 km/h (2 Bft) 100,00 %
15.10.2018 10:46 20,0 C 26,7 C 17,2 C 66 % 1010,6 hPa 0,0 l/m 0 min 0 min 172 W/m 22,5 km/h (4 Bft) 100,00 %
15.10.2018 10:48 20,2 C 27,2 C 17,2 C 65 % 1010,5 hPa 0,0 l/m 0 min 0 min 124 W/m 12,9 km/h (3 Bft) 97,87 %
15.10.2018 10:50 20,3 C 27,2 C 17,2 C 64 % 1010,5 hPa 0,0 l/m 0 min 0 min 169 W/m 16,1 km/h (3 Bft) 100,00 %
15.10.2018 10:52 20,5 C 26,7 C 17,2 C 63 % 1010,5 hPa 0,0 l/m 0 min 0 min 157 W/m 16,1 km/h (3 Bft) 100,00 %
15.10.2018 10:54 20,6 C 27,2 C 17,2 C 63 % 1010,5 hPa 0,0 l/m 0 min 0 min 143 W/m 12,9 km/h (3 Bft) 100,00 %
15.10.2018 10:56 20,8 C 26,7 C 17,2 C 62 % 1010,5 hPa 0,0 l/m 0 min 0 min 177 W/m 12,9 km/h (3 Bft) 100,00 %
15.10.2018 10:58 20,9 C 26,7 C 17,2 C 62 % 1010,6 hPa 0,0 l/m 0 min 0 min 117 W/m 16,1 km/h (3 Bft) 100,00 %
15.10.2018 11:00 21,1 C 27,2 C 17,2 C 62 % 1010,6 hPa 0,0 l/m 0 min 0 min 114 W/m 12,9 km/h (3 Bft) 100,00 %
15.10.2018 11:02 21,2 C 27,8 C 17,8 C 62 % 1010,6 hPa 0,0 l/m 0 min 0 min 81 W/m 6,4 km/h (2 Bft) 100,00 %
15.10.2018 11:04 21,3 C 27,2 C 17,8 C 61 % 1010,6 hPa 0,0 l/m 0 min 0 min 83 W/m 16,1 km/h (3 Bft) 100,00 %
15.10.2018 11:08 21,5 C 27,8 C 17,8 C 61 % 1010,5 hPa 0,0 l/m 0 min 0 min 112 W/m 16,1 km/h (3 Bft) 98,94 %
15.10.2018 11:10 21,6 C 27,8 C 17,8 C 61 % 1010,6 hPa 0,0 l/m 2 min 0 min 230 W/m 16,1 km/h (3 Bft) 100,00 %
15.10.2018 11:12 21,7 C 27,8 C 17,8 C 60 % 1010,6 hPa 0,0 l/m 0 min 0 min 177 W/m 16,1 km/h (3 Bft) 100,00 %
15.10.2018 11:14 21,8 C 27,8 C 17,8 C 61 % 1010,7 hPa 0,0 l/m 0 min 0 min 94 W/m 12,9 km/h (3 Bft) 100,00 %
15.10.2018 11:16 21,9 C 28,3 C 17,8 C 60 % 1010,7 hPa 0,0 l/m 0 min 0 min 136 W/m 12,9 km/h (3 Bft) 100,00 %
15.10.2018 11:18 22,0 C 27,8 C 17,8 C 59 % 1010,7 hPa 0,0 l/m 0 min 0 min 125 W/m 19,3 km/h (3 Bft) 100,00 %
15.10.2018 11:20 22,1 C 28,9 C 17,8 C 60 % 1010,7 hPa 0,0 l/m 0 min 0 min 106 W/m 12,9 km/h (3 Bft) 100,00 %
15.10.2018 11:22 22,2 C 28,9 C 17,8 C 59 % 1010,6 hPa 0,0 l/m 0 min 0 min 113 W/m 12,9 km/h (3 Bft) 100,00 %
15.10.2018 11:24 22,3 C 28,3 C 18,3 C 59 % 1010,7 hPa 0,0 l/m 0 min 0 min 84 W/m 16,1 km/h (3 Bft) 100,00 %
15.10.2018 11:26 22,3 C 29,4 C 18,3 C 59 % 1010,7 hPa 0,0 l/m 0 min 0 min 69 W/m 9,7 km/h (2 Bft) 95,65 %
15.10.2018 11:28 22,4 C 28,9 C 17,8 C 59 % 1010,7 hPa 0,0 l/m 0 min 0 min 72 W/m 12,9 km/h (3 Bft) 100,00 %
15.10.2018 11:30 22,5 C 29,4 C 17,8 C 59 % 1010,6 hPa 0,0 l/m 0 min 0 min 152 W/m 9,7 km/h (2 Bft) 100,00 %
15.10.2018 11:32 22,6 C 29,4 C 17,8 C 58 % 1010,6 hPa 0,0 l/m 2 min 0 min 219 W/m 16,1 km/h (3 Bft) 95,92 %
15.10.2018 11:34 22,7 C 28,9 C 18,3 C 58 % 1010,6 hPa 0,0 l/m 2 min 0 min 236 W/m 12,9 km/h (3 Bft) 100,00 %
15.10.2018 11:38 22,8 C 25,0 C 18,3 C 58 % 1010,8 hPa 0,0 l/m 0 min 0 min 198 W/m 16,1 km/h (3 Bft) 100,00 %
15.10.2018 11:40 22,8 C 23,9 C 17,8 C 58 % 1010,7 hPa 0,0 l/m 0 min 0 min 79 W/m 9,7 km/h (2 Bft) 100,00 %
15.10.2018 11:42 22,8 C 23,3 C 18,3 C 58 % 1010,7 hPa 0,0 l/m 0 min 0 min 97 W/m 9,7 km/h (2 Bft) 97,83 %
15.10.2018 11:44 22,8 C 24,4 C 18,3 C 57 % 1010,8 hPa 0,0 l/m 0 min 0 min 153 W/m 12,9 km/h (3 Bft) 100,00 %
15.10.2018 11:46 22,8 C 25,6 C 18,3 C 57 % 1010,8 hPa 0,0 l/m 2 min 0 min 239 W/m 12,9 km/h (3 Bft) 97,92 %
15.10.2018 11:48 22,8 C 25,6 C 18,3 C 57 % 1010,8 hPa 0,0 l/m 2 min 0 min 236 W/m 12,9 km/h (3 Bft) 97,87 %
15.10.2018 11:50 22,8 C 25,0 C 18,9 C 57 % 1010,7 hPa 0,0 l/m 0 min 0 min 181 W/m 12,9 km/h (3 Bft) 97,87 %
15.10.2018 11:52 22,8 C 27,2 C 18,9 C 58 % 1010,7 hPa 0,0 l/m 0 min 0 min 188 W/m 9,7 km/h (2 Bft) 97,87 %
15.10.2018 11:54 22,8 C 26,7 C 18,9 C 57 % 1010,7 hPa 0,0 l/m 0 min 0 min 226 W/m 12,9 km/h (3 Bft) 97,14 %
15.10.2018 11:56 22,8 C 26,7 C 19,4 C 57 % 1010,7 hPa 0,0 l/m 2 min 0 min 317 W/m 16,1 km/h (3 Bft) 97,83 %
15.10.2018 11:58 22,9 C 26,7 C 19,4 C 57 % 1010,7 hPa 0,0 l/m 2 min 0 min 308 W/m 9,7 km/h (2 Bft) 97,87 %
15.10.2018 12:00 22,9 C 26,7 C 19,4 C 57 % 1010,8 hPa 0,0 l/m 0 min 0 min 178 W/m 12,9 km/h (3 Bft) 97,87 %
15.10.2018 12:02 22,9 C 26,1 C 19,4 C 57 % 1010,7 hPa 0,0 l/m 0 min 0 min 170 W/m 12,9 km/h (3 Bft) 95,74 %
15.10.2018 12:04 22,9 C 25,6 C 18,9 C 57 % 1010,8 hPa 0,0 l/m 0 min 0 min 182 W/m 12,9 km/h (3 Bft) 97,87 %
15.10.2018 12:08 22,9 C 25,0 C 18,9 C 57 % 1010,8 hPa 0,0 l/m 0 min 0 min 174 W/m 16,1 km/h (3 Bft) 97,85 %
15.10.2018 12:10 22,9 C 26,1 C 18,9 C 57 % 1010,8 hPa 0,0 l/m 0 min 0 min 218 W/m 9,7 km/h (2 Bft) 97,87 %
15.10.2018 12:12 22,9 C 25,6 C 18,9 C 57 % 1010,8 hPa 0,0 l/m 0 min 0 min 177 W/m 6,4 km/h (2 Bft) 100,00 %
15.10.2018 12:14 22,9 C 24,4 C 18,9 C 57 % 1010,7 hPa 0,0 l/m 0 min 0 min 162 W/m 9,7 km/h (2 Bft) 95,74 %
15.10.2018 12:16 23,0 C 24,4 C 18,9 C 57 % 1010,8 hPa 0,0 l/m 0 min 0 min 163 W/m 6,4 km/h (2 Bft) 95,74 %
15.10.2018 12:18 23,0 C 25,0 C 18,9 C 57 % 1010,8 hPa 0,0 l/m 0 min 0 min 171 W/m 9,7 km/h (2 Bft) 95,74 %
15.10.2018 12:20 22,9 C 25,0 C 18,9 C 57 % 1010,7 hPa 0,0 l/m 0 min 0 min 143 W/m 12,9 km/h (3 Bft) 91,38 %
15.10.2018 12:22 23,0 C 25,0 C 19,4 C 57 % 1010,7 hPa 0,0 l/m 0 min 0 min 147 W/m 6,4 km/h (2 Bft) 95,74 %
15.10.2018 12:24 22,9 C 26,1 C 19,4 C 58 % 1010,8 hPa 0,0 l/m 0 min 0 min 155 W/m 9,7 km/h (2 Bft) 97,14 %
15.10.2018 12:26 23,0 C 26,1 C 19,4 C 57 % 1010,7 hPa 0,0 l/m 0 min 0 min 152 W/m 12,9 km/h (3 Bft) 95,74 %
15.10.2018 12:28 23,0 C 26,1 C 19,4 C 57 % 1010,7 hPa 0,0 l/m 0 min 0 min 148 W/m 16,1 km/h (3 Bft) 95,74 %
15.10.2018 12:30 23,1 C 26,1 C 19,4 C 58 % 1010,7 hPa 0,0 l/m 0 min 0 min 135 W/m 16,1 km/h (3 Bft) 93,62 %
15.10.2018 12:32 23,1 C 26,1 C 19,4 C 58 % 1010,6 hPa 0,0 l/m 0 min 0 min 120 W/m 12,9 km/h (3 Bft) 93,48 %
15.10.2018 12:34 23,1 C 25,6 C 19,4 C 58 % 1010,6 hPa 0,0 l/m 0 min 0 min 99 W/m 9,7 km/h (2 Bft) 93,62 %
15.10.2018 12:38 23,1 C 23,9 C 19,4 C 58 % 1010,6 hPa 0,0 l/m 0 min 0 min 79 W/m 19,3 km/h (3 Bft) 95,74 %
15.10.2018 12:40 23,1 C 25,0 C 18,9 C 57 % 1010,6 hPa 0,0 l/m 0 min 0 min 109 W/m 12,9 km/h (3 Bft) 97,87 %
15.10.2018 12:42 23,2 C 25,0 C 19,4 C 57 % 1010,6 hPa 0,0 l/m 0 min 0 min 85 W/m 16,1 km/h (3 Bft) 97,87 %
15.10.2018 12:44 23,2 C 23,9 C 19,4 C 57 % 1010,8 hPa 0,0 l/m 0 min 0 min 94 W/m 12,9 km/h (3 Bft) 95,65 %
15.10.2018 12:46 23,2 C 23,9 C 19,4 C 57 % 1010,6 hPa 0,0 l/m 0 min 0 min 115 W/m 16,1 km/h (3 Bft) 97,92 %
15.10.2018 12:48 23,2 C 24,4 C 19,4 C 57 % 1010,6 hPa 0,0 l/m 0 min 0 min 101 W/m 9,7 km/h (2 Bft) 97,87 %
15.10.2018 12:50 23,2 C 23,9 C 19,4 C 58 % 1010,6 hPa 0,0 l/m 0 min 0 min 101 W/m 12,9 km/h (3 Bft) 96,61 %
15.10.2018 12:52 23,2 C 23,3 C 19,4 C 57 % 1010,7 hPa 0,0 l/m 0 min 0 min 107 W/m 12,9 km/h (3 Bft) 95,65 %
15.10.2018 12:54 23,2 C 23,3 C 19,4 C 56 % 1010,6 hPa 0,0 l/m 0 min 0 min 95 W/m 19,3 km/h (3 Bft) 94,44 %
15.10.2018 12:56 23,2 C 22,8 C 19,4 C 57 % 1010,7 hPa 0,0 l/m 0 min 0 min 97 W/m 19,3 km/h (3 Bft) 95,65 %
15.10.2018 12:58 23,2 C 22,8 C 19,4 C 57 % 1010,7 hPa 0,0 l/m 0 min 0 min 229 W/m 16,1 km/h (3 Bft) 97,87 %
15.10.2018 13:00 23,2 C 23,3 C 19,4 C 57 % 1010,7 hPa 0,0 l/m 2 min 0 min 419 W/m 16,1 km/h (3 Bft) 100,00 %
15.10.2018 13:02 23,3 C 22,8 C 20,0 C 57 % 1010,7 hPa 0,0 l/m 2 min 0 min 434 W/m 19,3 km/h (3 Bft) 93,88 %
15.10.2018 13:04 23,3 C 22,8 C 20,0 C 56 % 1010,6 hPa 0,0 l/m 2 min 0 min 434 W/m 12,9 km/h (3 Bft) 95,74 %
15.10.2018 13:08 23,3 C 23,3 C 20,0 C 57 % 1010,6 hPa 0,0 l/m 4 min 0 min 436 W/m 9,7 km/h (2 Bft) 100,00 %
15.10.2018 13:10 23,3 C 23,3 C 20,0 C 56 % 1010,6 hPa 0,0 l/m 2 min 0 min 435 W/m 9,7 km/h (2 Bft) 95,74 %
15.10.2018 13:12 23,3 C 23,3 C 20,0 C 57 % 1010,5 hPa 0,0 l/m 2 min 0 min 436 W/m 16,1 km/h (3 Bft) 97,87 %
15.10.2018 13:14 23,3 C 23,3 C 20,0 C 56 % 1010,6 hPa 0,0 l/m 2 min 0 min 437 W/m 12,9 km/h (3 Bft) 100,00 %
15.10.2018 13:16 23,3 C 23,3 C 20,0 C 57 % 1010,6 hPa 0,0 l/m 2 min 0 min 436 W/m 12,9 km/h (3 Bft) 100,00 %
15.10.2018 13:18 23,4 C 23,3 C 20,0 C 57 % 1010,5 hPa 0,0 l/m 2 min 0 min 438 W/m 12,9 km/h (3 Bft) 100,00 %
15.10.2018 13:20 23,4 C 23,3 C 20,0 C 56 % 1010,5 hPa 0,0 l/m 2 min 0 min 438 W/m 16,1 km/h (3 Bft) 97,87 %
15.10.2018 13:22 23,4 C 23,3 C 20,0 C 56 % 1010,5 hPa 0,0 l/m 2 min 0 min 439 W/m 9,7 km/h (2 Bft) 97,87 %
15.10.2018 13:24 23,5 C 23,9 C 20,6 C 56 % 1010,5 hPa 0,0 l/m 2 min 0 min 442 W/m 12,9 km/h (3 Bft) 97,87 %
15.10.2018 13:26 23,6 C 23,9 C 20,6 C 56 % 1010,5 hPa 0,0 l/m 2 min 0 min 445 W/m 12,9 km/h (3 Bft) 97,87 %
15.10.2018 13:28 23,6 C 23,9 C 20,0 C 56 % 1010,5 hPa 0,0 l/m 2 min 0 min 445 W/m 12,9 km/h (3 Bft) 97,87 %
15.10.2018 13:30 23,6 C 23,9 C 20,6 C 56 % 1010,5 hPa 0,0 l/m 2 min 0 min 446 W/m 12,9 km/h (3 Bft) 97,83 %
15.10.2018 13:32 23,7 C 23,9 C 20,6 C 57 % 1010,5 hPa 0,0 l/m 2 min 0 min 446 W/m 6,4 km/h (2 Bft) 97,87 %
15.10.2018 13:34 23,7 C 23,9 C 20,6 C 56 % 1010,5 hPa 0,0 l/m 2 min 0 min 446 W/m 12,9 km/h (3 Bft) 97,87 %
15.10.2018 13:38 23,8 C 23,9 C 20,6 C 55 % 1010,4 hPa 0,0 l/m 4 min 0 min 447 W/m 9,7 km/h (2 Bft) 98,02 %
15.10.2018 13:40 23,8 C 23,9 C 20,6 C 55 % 1010,4 hPa 0,0 l/m 2 min 0 min 448 W/m 9,7 km/h (2 Bft) 91,49 %
15.10.2018 13:42 23,9 C 23,9 C 20,6 C 55 % 1010,4 hPa 0,0 l/m 2 min 0 min 447 W/m 12,9 km/h (3 Bft) 97,87 %
15.10.2018 13:44 23,9 C 24,4 C 20,6 C 55 % 1010,4 hPa 0,0 l/m 2 min 0 min 445 W/m 6,4 km/h (2 Bft) 97,87 %
15.10.2018 13:46 24,0 C 24,4 C 20,6 C 55 % 1010,4 hPa 0,0 l/m 2 min 0 min 446 W/m 9,7 km/h (2 Bft) 97,62 %
15.10.2018 13:48 24,1 C 24,4 C 21,1 C 55 % 1010,3 hPa 0,0 l/m 2 min 0 min 446 W/m 12,9 km/h (3 Bft) 97,87 %
15.10.2018 13:50 24,1 C 24,4 C 20,6 C 55 % 1010,4 hPa 0,0 l/m 2 min 0 min 448 W/m 12,9 km/h (3 Bft) 97,87 %
15.10.2018 13:52 24,1 C 24,4 C 21,1 C 54 % 1010,3 hPa 0,0 l/m 2 min 0 min 448 W/m 19,3 km/h (3 Bft) 97,83 %
15.10.2018 13:54 24,2 C 24,4 C 21,1 C 54 % 1010,3 hPa 0,0 l/m 2 min 0 min 451 W/m 16,1 km/h (3 Bft) 97,87 %
15.10.2018 13:56 24,2 C 24,4 C 21,1 C 54 % 1010,3 hPa 0,0 l/m 2 min 0 min 449 W/m 12,9 km/h (3 Bft) 97,87 %
15.10.2018 13:58 24,3 C 24,4 C 21,1 C 54 % 1010,3 hPa 0,0 l/m 2 min 0 min 448 W/m 16,1 km/h (3 Bft) 97,87 %
15.10.2018 14:00 24,3 C 24,4 C 21,7 C 53 % 1010,4 hPa 0,0 l/m 2 min 0 min 448 W/m 9,7 km/h (2 Bft) 97,87 %
15.10.2018 14:02 24,4 C 25,0 C 21,7 C 54 % 1010,3 hPa 0,0 l/m 2 min 0 min 452 W/m 12,9 km/h (3 Bft) 95,74 %
15.10.2018 14:04 24,4 C 25,0 C 21,7 C 54 % 1010,4 hPa 0,0 l/m 2 min 0 min 454 W/m 12,9 km/h (3 Bft) 97,83 %
15.10.2018 14:08 24,5 C 25,0 C 21,7 C 53 % 1010,3 hPa 0,0 l/m 4 min 0 min 452 W/m 9,7 km/h (2 Bft) 98,89 %
15.10.2018 14:10 24,6 C 25,0 C 21,7 C 53 % 1010,3 hPa 0,0 l/m 2 min 0 min 450 W/m 9,7 km/h (2 Bft) 97,87 %
15.10.2018 14:12 24,6 C 25,0 C 21,7 C 53 % 1010,3 hPa 0,0 l/m 2 min 0 min 452 W/m 16,1 km/h (3 Bft) 97,87 %
15.10.2018 14:14 24,7 C 25,0 C 22,2 C 52 % 1010,3 hPa 0,0 l/m 2 min 0 min 398 W/m 19,3 km/h (3 Bft) 97,83 %
15.10.2018 14:16 24,7 C 25,0 C 22,2 C 52 % 1010,4 hPa 0,0 l/m 2 min 0 min 250 W/m 9,7 km/h (2 Bft) 100,00 %
15.10.2018 14:18 24,8 C 25,0 C 22,2 C 52 % 1010,4 hPa 0,0 l/m 0 min 0 min 168 W/m 9,7 km/h (2 Bft) 100,00 %
15.10.2018 14:20 24,8 C 25,0 C 22,2 C 51 % 1010,4 hPa 0,0 l/m 0 min 0 min 169 W/m 9,7 km/h (2 Bft) 100,00 %
15.10.2018 14:22 24,9 C 25,0 C 22,2 C 51 % 1010,4 hPa 0,0 l/m 0 min 0 min 123 W/m 12,9 km/h (3 Bft) 100,00 %
15.10.2018 14:24 24,9 C 25,0 C 22,2 C 52 % 1010,4 hPa 0,0 l/m 0 min 0 min 84 W/m 9,7 km/h (2 Bft) 100,00 %
15.10.2018 14:26 24,9 C 25,0 C 22,2 C 52 % 1010,4 hPa 0,0 l/m 0 min 0 min 77 W/m 9,7 km/h (2 Bft) 100,00 %
15.10.2018 14:28 25,0 C 25,0 C 22,2 C 51 % 1010,3 hPa 0,0 l/m 0 min 0 min 81 W/m 9,7 km/h (2 Bft) 100,00 %
15.10.2018 14:30 25,1 C 25,0 C 22,2 C 52 % 1010,3 hPa 0,0 l/m 0 min 0 min 78 W/m 6,4 km/h (2 Bft) 100,00 %
15.10.2018 14:32 25,1 C 25,0 C 21,7 C 52 % 1010,2 hPa 0,0 l/m 0 min 0 min 76 W/m 9,7 km/h (2 Bft) 98,00 %
15.10.2018 14:34 25,1 C 25,0 C 22,2 C 52 % 1010,3 hPa 0,0 l/m 0 min 0 min 76 W/m 12,9 km/h (3 Bft) 100,00 %
15.10.2018 14:38 25,1 C 25,0 C 22,2 C 51 % 1010,3 hPa 0,0 l/m 0 min 0 min 78 W/m 12,9 km/h (3 Bft) 100,00 %
15.10.2018 14:40 25,1 C 25,0 C 22,2 C 52 % 1010,2 hPa 0,0 l/m 0 min 0 min 79 W/m 9,7 km/h (2 Bft) 100,00 %
15.10.2018 14:42 25,2 C 25,0 C 22,2 C 52 % 1010,3 hPa 0,0 l/m 0 min 0 min 80 W/m 16,1 km/h (3 Bft) 100,00 %
15.10.2018 14:44 25,2 C 25,0 C 22,2 C 51 % 1010,3 hPa 0,0 l/m 0 min 0 min 109 W/m 9,7 km/h (2 Bft) 100,00 %
15.10.2018 14:46 25,2 C 25,0 C 22,2 C 52 % 1010,3 hPa 0,0 l/m 0 min 0 min 143 W/m 6,4 km/h (2 Bft) 100,00 %
15.10.2018 14:48 25,2 C 25,0 C 22,2 C 52 % 1010,2 hPa 0,0 l/m 0 min 0 min 139 W/m 9,7 km/h (2 Bft) 100,00 %
15.10.2018 14:50 25,3 C 25,0 C 21,7 C 52 % 1010,2 hPa 0,0 l/m 2 min 0 min 275 W/m 6,4 km/h (2 Bft) 95,65 %
15.10.2018 14:52 25,3 C 25,0 C 21,7 C 52 % 1010,2 hPa 0,0 l/m 2 min 0 min 298 W/m 9,7 km/h (2 Bft) 100,00 %
15.10.2018 14:54 25,3 C 25,0 C 22,2 C 52 % 1010,2 hPa 0,0 l/m 2 min 0 min 348 W/m 9,7 km/h (2 Bft) 93,62 %
15.10.2018 14:56 25,3 C 25,0 C 20,0 C 52 % 1010,2 hPa 0,0 l/m 2 min 0 min 310 W/m 12,9 km/h (3 Bft) 95,74 %
15.10.2018 14:58 25,3 C 23,9 C 18,9 C 54 % 1010,2 hPa 0,0 l/m 2 min 0 min 355 W/m 9,7 km/h (2 Bft) 95,74 %
15.10.2018 15:00 25,3 C 21,1 C 17,8 C 55 % 1010,3 hPa 0,0 l/m 2 min 0 min 414 W/m 6,4 km/h (2 Bft) 95,74 %
15.10.2018 15:02 25,3 C 21,1 C 17,2 C 55 % 1010,2 hPa 0,0 l/m 2 min 0 min 433 W/m 6,4 km/h (2 Bft) 95,65 %
15.10.2018 15:04 25,2 C 21,1 C 16,1 C 55 % 1010,3 hPa 0,0 l/m 2 min 0 min 423 W/m 12,9 km/h (3 Bft) 93,62 %
15.10.2018 15:08 25,1 C 21,1 C 16,7 C 54 % 1010,3 hPa 0,0 l/m 4 min 0 min 424 W/m 12,9 km/h (3 Bft) 93,62 %
15.10.2018 15:10 25,1 C 21,7 C 16,7 C 56 % 1010,2 hPa 0,0 l/m 2 min 0 min 426 W/m 6,4 km/h (2 Bft) 93,62 %
15.10.2018 15:12 25,1 C 22,8 C 16,1 C 55 % 1010,2 hPa 0,0 l/m 2 min 0 min 430 W/m 6,4 km/h (2 Bft) 97,87 %
15.10.2018 15:14 25,0 C 22,8 C 16,7 C 57 % 1010,2 hPa 0,0 l/m 2 min 0 min 417 W/m 6,4 km/h (2 Bft) 95,65 %
15.10.2018 15:16 24,9 C 22,2 C 16,1 C 57 % 1010,2 hPa 0,0 l/m 2 min 0 min 417 W/m 6,4 km/h (2 Bft) 95,74 %
15.10.2018 15:18 24,9 C 20,6 C 16,1 C 57 % 1010,2 hPa 0,0 l/m 2 min 0 min 407 W/m 6,4 km/h (2 Bft) 95,74 %
15.10.2018 15:20 24,8 C 18,9 C 16,1 C 60 % 1010,2 hPa 0,0 l/m 2 min 0 min 389 W/m 6,4 km/h (2 Bft) 95,74 %
15.10.2018 15:22 24,7 C 18,3 C 16,1 C 57 % 1010,2 hPa 0,0 l/m 2 min 0 min 341 W/m 12,9 km/h (3 Bft) 95,74 %
15.10.2018 15:24 24,7 C 17,8 C 16,1 C 57 % 1010,2 hPa 0,0 l/m 2 min 0 min 308 W/m 9,7 km/h (2 Bft) 95,74 %
15.10.2018 15:26 24,6 C 17,8 C 15,6 C 56 % 1010,2 hPa 0,0 l/m 2 min 0 min 294 W/m 6,4 km/h (2 Bft) 95,65 %
15.10.2018 15:28 24,5 C 18,3 C 16,1 C 56 % 1010,2 hPa 0,0 l/m 2 min 0 min 301 W/m 9,7 km/h (2 Bft) 93,62 %
15.10.2018 15:30 24,5 C 18,3 C 16,1 C 57 % 1010,2 hPa 0,0 l/m 2 min 0 min 365 W/m 9,7 km/h (2 Bft) 95,74 %
15.10.2018 15:32 24,4 C 18,9 C 16,1 C 56 % 1010,2 hPa 0,0 l/m 2 min 0 min 348 W/m 9,7 km/h (2 Bft) 95,74 %
15.10.2018 15:34 24,4 C 18,3 C 16,1 C 56 % 1010,2 hPa 0,0 l/m 2 min 0 min 336 W/m 6,4 km/h (2 Bft) 95,74 %
15.10.2018 15:38 24,3 C 18,3 C 16,1 C 60 % 1010,2 hPa 0,0 l/m 4 min 0 min 343 W/m 3,2 km/h (1 Bft) 97,80 %
15.10.2018 15:40 24,3 C 18,3 C 16,1 C 61 % 1010,3 hPa 0,0 l/m 2 min 0 min 354 W/m 6,4 km/h (2 Bft) 97,87 %
15.10.2018 15:42 24,3 C 18,9 C 16,1 C 58 % 1010,3 hPa 0,0 l/m 2 min 0 min 359 W/m 6,4 km/h (2 Bft) 97,87 %
15.10.2018 15:44 24,2 C 18,9 C 16,1 C 58 % 1010,3 hPa 0,0 l/m 2 min 0 min 359 W/m 6,4 km/h (2 Bft) 95,74 %
15.10.2018 15:46 24,2 C 18,9 C 16,1 C 59 % 1010,3 hPa 0,0 l/m 2 min 0 min 355 W/m 9,7 km/h (2 Bft) 97,83 %
15.10.2018 15:48 24,1 C 18,9 C 15,6 C 58 % 1010,3 hPa 0,0 l/m 2 min 0 min 365 W/m 9,7 km/h (2 Bft) 97,87 %
15.10.2018 15:50 24,1 C 19,4 C 16,1 C 58 % 1010,2 hPa 0,0 l/m 2 min 0 min 365 W/m 9,7 km/h (2 Bft) 97,87 %
15.10.2018 15:52 24,1 C 18,9 C 16,1 C 57 % 1010,3 hPa 0,0 l/m 2 min 0 min 361 W/m 12,9 km/h (3 Bft) 97,92 %
15.10.2018 15:54 24,0 C 17,8 C 15,6 C 57 % 1010,3 hPa 0,0 l/m 2 min 0 min 348 W/m 6,4 km/h (2 Bft) 100,00 %
15.10.2018 15:56 24,0 C 17,8 C 15,6 C 57 % 1010,3 hPa 0,0 l/m 2 min 0 min 309 W/m 12,9 km/h (3 Bft) 97,87 %
15.10.2018 15:58 23,9 C 18,3 C 15,6 C 58 % 1010,3 hPa 0,0 l/m 2 min 0 min 341 W/m 6,4 km/h (2 Bft) 97,83 %
15.10.2018 16:00 23,9 C 17,8 C 15,6 C 59 % 1010,3 hPa 0,0 l/m 2 min 0 min 355 W/m 6,4 km/h (2 Bft) 97,87 %
15.10.2018 16:02 23,9 C 18,3 C 15,6 C 57 % 1010,4 hPa 0,0 l/m 2 min 0 min 349 W/m 9,7 km/h (2 Bft) 100,00 %
15.10.2018 16:04 23,9 C 18,3 C 15,6 C 57 % 1010,4 hPa 0,0 l/m 2 min 0 min 345 W/m 6,4 km/h (2 Bft) 100,00 %
15.10.2018 16:08 23,8 C 18,9 C 15,6 C 57 % 1010,4 hPa 0,0 l/m 4 min 0 min 336 W/m 3,2 km/h (1 Bft) 95,74 %
15.10.2018 16:10 23,9 C 17,8 C 16,1 C 61 % 1010,4 hPa 0,0 l/m 2 min 0 min 330 W/m 9,7 km/h (2 Bft) 100,00 %
15.10.2018 16:12 23,8 C 17,8 C 15,6 C 57 % 1010,4 hPa 0,0 l/m 2 min 0 min 328 W/m 6,4 km/h (2 Bft) 97,83 %
15.10.2018 16:14 23,8 C 17,8 C 15,6 C 57 % 1010,4 hPa 0,0 l/m 2 min 0 min 321 W/m 12,9 km/h (3 Bft) 100,00 %
15.10.2018 16:16 23,8 C 17,8 C 15,6 C 58 % 1010,4 hPa 0,0 l/m 2 min 0 min 286 W/m 9,7 km/h (2 Bft) 97,87 %
15.10.2018 16:18 23,8 C 17,8 C 15,6 C 59 % 1010,4 hPa 0,0 l/m 2 min 0 min 277 W/m 6,4 km/h (2 Bft) 100,00 %
15.10.2018 16:20 23,8 C 17,8 C 15,6 C 59 % 1010,4 hPa 0,0 l/m 2 min 0 min 311 W/m 16,1 km/h (3 Bft) 100,00 %
15.10.2018 16:22 23,8 C 18,3 C 15,6 C 60 % 1010,4 hPa 0,0 l/m 2 min 0 min 305 W/m 6,4 km/h (2 Bft) 100,00 %
15.10.2018 16:24 23,8 C 18,9 C 15,6 C 59 % 1010,5 hPa 0,0 l/m 2 min 0 min 301 W/m 6,4 km/h (2 Bft) 100,00 %
15.10.2018 16:26 23,8 C 18,9 C 15,6 C 59 % 1010,4 hPa 0,0 l/m 2 min 0 min 299 W/m 3,2 km/h (1 Bft) 95,65 %
15.10.2018 16:28 23,8 C 18,9 C 15,6 C 58 % 1010,4 hPa 0,0 l/m 2 min 0 min 297 W/m 3,2 km/h (1 Bft) 95,74 %
15.10.2018 16:30 23,7 C 18,3 C 15,6 C 58 % 1010,4 hPa 0,0 l/m 2 min 0 min 242 W/m 9,7 km/h (2 Bft) 97,87 %
15.10.2018 16:32 23,7 C 18,9 C 15,6 C 57 % 1010,4 hPa 0,0 l/m 2 min 0 min 205 W/m 9,7 km/h (2 Bft) 97,73 %
15.10.2018 16:34 23,7 C 17,8 C 15,6 C 59 % 1010,4 hPa 0,0 l/m 2 min 0 min 273 W/m 6,4 km/h (2 Bft) 95,65 %
15.10.2018 16:38 23,7 C 17,8 C 15,6 C 58 % 1010,5 hPa 0,0 l/m 4 min 0 min 260 W/m 6,4 km/h (2 Bft) 97,87 %
15.10.2018 16:40 23,7 C 17,8 C 15,6 C 58 % 1010,5 hPa 0,0 l/m 2 min 0 min 257 W/m 12,9 km/h (3 Bft) 95,74 %
15.10.2018 16:42 23,7 C 17,8 C 15,6 C 58 % 1010,5 hPa 0,0 l/m 2 min 0 min 254 W/m 6,4 km/h (2 Bft) 97,87 %
15.10.2018 16:44 23,6 C 17,8 C 15,6 C 58 % 1010,5 hPa 0,0 l/m 2 min 0 min 246 W/m 6,4 km/h (2 Bft) 97,87 %
15.10.2018 16:46 23,6 C 17,8 C 15,6 C 59 % 1010,5 hPa 0,0 l/m 2 min 0 min 244 W/m 6,4 km/h (2 Bft) 97,83 %
15.10.2018 16:48 23,6 C 17,8 C 15,6 C 60 % 1010,5 hPa 0,0 l/m 2 min 0 min 249 W/m 6,4 km/h (2 Bft) 95,74 %
15.10.2018 16:50 23,6 C 17,2 C 15,0 C 58 % 1010,6 hPa 0,0 l/m 2 min 0 min 249 W/m 9,7 km/h (2 Bft) 98,31 %
15.10.2018 16:52 23,5 C 16,7 C 15,0 C 58 % 1010,6 hPa 0,0 l/m 2 min 0 min 245 W/m 9,7 km/h (2 Bft) 97,14 %
15.10.2018 16:54 23,4 C 17,8 C 15,0 C 57 % 1010,6 hPa 0,0 l/m 2 min 0 min 237 W/m 9,7 km/h (2 Bft) 97,87 %
15.10.2018 16:56 23,4 C 17,8 C 15,0 C 57 % 1010,6 hPa 0,0 l/m 2 min 0 min 218 W/m 6,4 km/h (2 Bft) 97,83 %
15.10.2018 16:58 23,4 C 17,8 C 15,0 C 56 % 1010,6 hPa 0,0 l/m 2 min 0 min 158 W/m 9,7 km/h (2 Bft) 97,87 %
15.10.2018 17:00 23,4 C 17,2 C 15,0 C 58 % 1010,6 hPa 0,0 l/m 2 min 0 min 141 W/m 3,2 km/h (1 Bft) 97,87 %
15.10.2018 17:02 23,4 C 17,2 C 15,0 C 59 % 1010,7 hPa 0,0 l/m 0 min 0 min 108 W/m 6,4 km/h (2 Bft) 94,00 %
15.10.2018 17:04 23,3 C 16,7 C 15,0 C 58 % 1010,7 hPa 0,0 l/m 0 min 0 min 62 W/m 6,4 km/h (2 Bft) 97,87 %
15.10.2018 17:08 23,3 C 16,7 C 15,0 C 59 % 1010,7 hPa 0,0 l/m 0 min 0 min 54 W/m 9,7 km/h (2 Bft) 97,92 %
15.10.2018 17:10 23,3 C 16,7 C 15,0 C 59 % 1010,7 hPa 0,0 l/m 0 min 0 min 53 W/m 9,7 km/h (2 Bft) 97,87 %
15.10.2018 17:12 23,3 C 16,7 C 15,0 C 60 % 1010,7 hPa 0,0 l/m 0 min 0 min 51 W/m 3,2 km/h (1 Bft) 97,83 %
15.10.2018 17:14 23,2 C 16,1 C 15,0 C 60 % 1010,7 hPa 0,0 l/m 0 min 0 min 49 W/m 6,4 km/h (2 Bft) 100,00 %
15.10.2018 17:16 23,2 C 16,1 C 15,0 C 60 % 1010,8 hPa 0,0 l/m 0 min 0 min 49 W/m 6,4 km/h (2 Bft) 97,87 %
15.10.2018 17:18 23,1 C 16,7 C 15,0 C 58 % 1010,8 hPa 0,0 l/m 0 min 0 min 48 W/m 9,7 km/h (2 Bft) 97,87 %
15.10.2018 17:20 23,1 C 17,2 C 15,0 C 59 % 1010,7 hPa 0,0 l/m 0 min 0 min 47 W/m 9,7 km/h (2 Bft) 100,00 %
15.10.2018 17:22 23,1 C 17,2 C 15,0 C 58 % 1010,7 hPa 0,0 l/m 0 min 0 min 45 W/m 9,7 km/h (2 Bft) 100,00 %
15.10.2018 17:24 23,0 C 17,2 C 15,0 C 60 % 1010,8 hPa 0,0 l/m 0 min 0 min 44 W/m 6,4 km/h (2 Bft) 95,74 %
15.10.2018 17:26 23,0 C 17,2 C 15,0 C 59 % 1010,7 hPa 0,0 l/m 0 min 0 min 40 W/m 6,4 km/h (2 Bft) 97,87 %
15.10.2018 17:28 22,9 C 17,2 C 15,6 C 60 % 1010,7 hPa 0,0 l/m 0 min 0 min 39 W/m 6,4 km/h (2 Bft) 97,87 %
15.10.2018 17:30 22,9 C 17,2 C 15,6 C 58 % 1010,8 hPa 0,0 l/m 0 min 0 min 37 W/m 6,4 km/h (2 Bft) 95,74 %
15.10.2018 17:32 22,9 C 17,2 C 15,6 C 59 % 1010,8 hPa 0,0 l/m 0 min 0 min 36 W/m 3,2 km/h (1 Bft) 97,92 %
15.10.2018 17:34 22,9 C 17,8 C 15,6 C 59 % 1010,8 hPa 0,0 l/m 0 min 0 min 37 W/m 3,2 km/h (1 Bft) 97,83 %
15.10.2018 17:38 22,8 C 17,8 C 15,6 C 59 % 1010,8 hPa 0,0 l/m 0 min 0 min 36 W/m 6,4 km/h (2 Bft) 96,81 %
15.10.2018 17:40 22,8 C 17,8 C 16,1 C 58 % 1010,8 hPa 0,0 l/m 0 min 0 min 35 W/m 6,4 km/h (2 Bft) 97,87 %
15.10.2018 17:42 22,7 C 18,3 C 16,1 C 57 % 1010,7 hPa 0,0 l/m 0 min 0 min 33 W/m 6,4 km/h (2 Bft) 95,74 %
15.10.2018 17:44 22,7 C 18,3 C 16,1 C 57 % 1010,8 hPa 0,0 l/m 0 min 0 min 33 W/m 3,2 km/h (1 Bft) 97,87 %
15.10.2018 17:46 22,7 C 18,3 C 16,1 C 58 % 1010,8 hPa 0,0 l/m 0 min 0 min 32 W/m 3,2 km/h (1 Bft) 97,96 %
15.10.2018 17:48 22,7 C 18,9 C 16,1 C 58 % 1010,9 hPa 0,0 l/m 0 min 0 min 32 W/m 3,2 km/h (1 Bft) 95,74 %
15.10.2018 17:50 22,6 C 18,9 C 16,1 C 57 % 1010,9 hPa 0,0 l/m 0 min 0 min 30 W/m 6,4 km/h (2 Bft) 97,87 %
15.10.2018 17:52 22,6 C 20,0 C 16,1 C 57 % 1010,8 hPa 0,0 l/m 0 min 0 min 30 W/m 9,7 km/h (2 Bft) 97,87 %
15.10.2018 17:54 22,6 C 20,6 C 16,1 C 57 % 1010,9 hPa 0,0 l/m 0 min 0 min 29 W/m 3,2 km/h (1 Bft) 97,14 %
15.10.2018 17:56 22,6 C 21,1 C 16,1 C 57 % 1010,9 hPa 0,0 l/m 0 min 0 min 28 W/m 6,4 km/h (2 Bft) 95,74 %
15.10.2018 17:58 22,5 C 21,1 C 16,1 C 56 % 1010,9 hPa 0,0 l/m 0 min 0 min 27 W/m 6,4 km/h (2 Bft) 97,92 %
15.10.2018 18:00 22,5 C 21,7 C 16,1 C 57 % 1011,0 hPa 0,0 l/m 0 min 0 min 26 W/m 3,2 km/h (1 Bft) 95,74 %
15.10.2018 18:02 22,5 C 21,1 C 16,1 C 57 % 1011,0 hPa 0,0 l/m 0 min 0 min 25 W/m 3,2 km/h (1 Bft) 95,83 %
15.10.2018 18:04 22,4 C 21,1 C 16,1 C 57 % 1010,9 hPa 0,0 l/m 0 min 0 min 25 W/m 3,2 km/h (1 Bft) 97,87 %
15.10.2018 18:08 22,4 C 21,1 C 15,6 C 57 % 1011,0 hPa 0,0 l/m 0 min 0 min 23 W/m 3,2 km/h (1 Bft) 96,81 %
15.10.2018 18:10 22,4 C 21,1 C 15,6 C 57 % 1011,0 hPa 0,0 l/m 0 min 0 min 21 W/m 0,0 km/h (0 Bft) 97,87 %
15.10.2018 18:12 22,4 C 21,1 C 15,6 C 57 % 1011,1 hPa 0,0 l/m 0 min 0 min 20 W/m 6,4 km/h (2 Bft) 95,65 %
15.10.2018 18:14 22,4 C 21,1 C 15,6 C 58 % 1011,1 hPa 0,0 l/m 0 min 0 min 19 W/m 6,4 km/h (2 Bft) 97,87 %
15.10.2018 18:16 22,4 C 21,1 C 16,1 C 57 % 1011,2 hPa 0,0 l/m 0 min 0 min 18 W/m 6,4 km/h (2 Bft) 95,83 %
15.10.2018 18:18 22,3 C 21,1 C 15,6 C 58 % 1011,1 hPa 0,0 l/m 0 min 0 min 18 W/m 3,2 km/h (1 Bft) 97,87 %
15.10.2018 18:20 22,3 C 21,1 C 15,6 C 58 % 1011,2 hPa 0,0 l/m 0 min 0 min 16 W/m 3,2 km/h (1 Bft) 95,74 %
15.10.2018 18:22 22,3 C 21,1 C 15,6 C 58 % 1011,1 hPa 0,0 l/m 0 min 0 min 16 W/m 3,2 km/h (1 Bft) 97,87 %
15.10.2018 18:24 22,3 C 21,1 C 15,6 C 57 % 1011,2 hPa 0,0 l/m 0 min 0 min 14 W/m 3,2 km/h (1 Bft) 93,62 %
15.10.2018 18:26 22,2 C 21,1 C 15,6 C 58 % 1011,2 hPa 0,0 l/m 0 min 0 min 14 W/m 0,0 km/h (0 Bft) 97,87 %
15.10.2018 18:28 22,2 C 21,1 C 15,6 C 57 % 1011,3 hPa 0,0 l/m 0 min 0 min 12 W/m 3,2 km/h (1 Bft) 95,74 %
15.10.2018 18:30 22,2 C 21,1 C 15,6 C 57 % 1011,2 hPa 0,0 l/m 0 min 0 min 12 W/m 3,2 km/h (1 Bft) 100,00 %
15.10.2018 18:34 22,1 C 21,1 C 15,6 C 57 % 1011,2 hPa 0,2 l/m 0 min 0 min 10 W/m 0,0 km/h (0 Bft) 97,83 %
15.10.2018 18:38 22,1 C 20,6 C 15,6 C 57 % 1011,4 hPa 0,0 l/m 0 min 0 min 8 W/m 3,2 km/h (1 Bft) 96,84 %
15.10.2018 18:40 22,1 C 20,6 C 15,6 C 58 % 1011,5 hPa 0,0 l/m 0 min 0 min 7 W/m 3,2 km/h (1 Bft) 96,30 %
15.10.2018 18:42 22,0 C 20,6 C 15,0 C 58 % 1011,5 hPa 0,0 l/m 0 min 0 min 6 W/m 0,0 km/h (0 Bft) 97,62 %
15.10.2018 18:44 22,0 C 20,0 C 15,0 C 58 % 1011,6 hPa 0,0 l/m 0 min 0 min 5 W/m 0,0 km/h (0 Bft) 95,74 %
15.10.2018 18:46 21,9 C 20,6 C 15,6 C 57 % 1011,6 hPa 0,0 l/m 0 min 0 min 5 W/m 3,2 km/h (1 Bft) 95,74 %
15.10.2018 18:48 21,9 C 20,6 C 15,6 C 57 % 1011,6 hPa 0,0 l/m 0 min 0 min 3 W/m 3,2 km/h (1 Bft) 97,67 %
15.10.2018 18:50 21,8 C 20,6 C 15,6 C 57 % 1011,7 hPa 0,0 l/m 0 min 0 min 0 W/m 0,0 km/h (0 Bft) 97,96 %
15.10.2018 18:52 21,8 C 20,6 C 15,6 C 57 % 1011,8 hPa 0,0 l/m 0 min 0 min 0 W/m 0,0 km/h (0 Bft) 95,74 %
15.10.2018 18:54 21,8 C 20,0 C 15,6 C 58 % 1011,8 hPa 0,0 l/m 0 min 0 min 0 W/m 0,0 km/h (0 Bft) 97,87 %
15.10.2018 18:56 21,7 C 20,6 C 15,6 C 57 % 1011,8 hPa 0,0 l/m 0 min 0 min 0 W/m 6,4 km/h (2 Bft) 98,00 %
15.10.2018 18:58 21,7 C 20,0 C 16,1 C 58 % 1011,8 hPa 0,0 l/m 0 min 0 min 0 W/m 3,2 km/h (1 Bft) 93,62 %
15.10.2018 19:00 21,6 C 20,0 C 16,1 C 58 % 1011,8 hPa 0,0 l/m 0 min 0 min 0 W/m 6,4 km/h (2 Bft) 92,68 %
15.10.2018 19:02 21,6 C 20,0 C 16,1 C 58 % 1011,8 hPa 0,0 l/m 0 min 0 min 0 W/m 3,2 km/h (1 Bft) 96,00 %
15.10.2018 19:04 21,5 C 20,0 C 16,7 C 58 % 1011,8 hPa 0,0 l/m 0 min 0 min 0 W/m 3,2 km/h (1 Bft) 93,62 %
15.10.2018 19:08 21,4 C 20,0 C 16,1 C 58 % 1011,9 hPa 0,0 l/m 0 min 0 min 0 W/m 3,2 km/h (1 Bft) 97,87 %
15.10.2018 19:10 21,4 C 20,0 C 16,1 C 58 % 1011,9 hPa 0,0 l/m 0 min 0 min 0 W/m 3,2 km/h (1 Bft) 97,83 %
15.10.2018 19:12 21,3 C 20,0 C 16,7 C 58 % 1012,0 hPa 0,0 l/m 0 min 0 min 0 W/m 3,2 km/h (1 Bft) 97,87 %
15.10.2018 19:14 21,3 C 19,4 C 16,1 C 58 % 1012,0 hPa 0,0 l/m 0 min 0 min 0 W/m 3,2 km/h (1 Bft) 95,74 %
15.10.2018 19:16 21,2 C 19,4 C 16,1 C 58 % 1012,0 hPa 0,0 l/m 0 min 0 min 0 W/m 0,0 km/h (0 Bft) 97,87 %
15.10.2018 19:18 21,2 C 19,4 C 16,1 C 58 % 1012,0 hPa 0,0 l/m 0 min 0 min 0 W/m 0,0 km/h (0 Bft) 97,87 %
15.10.2018 19:20 21,1 C 19,4 C 16,1 C 58 % 1012,0 hPa 0,0 l/m 0 min 0 min 0 W/m 3,2 km/h (1 Bft) 97,83 %
15.10.2018 19:22 21,1 C 19,4 C 16,1 C 58 % 1012,1 hPa 0,0 l/m 0 min 0 min 0 W/m 6,4 km/h (2 Bft) 97,96 %
15.10.2018 19:24 21,0 C 19,4 C 16,1 C 59 % 1012,0 hPa 0,0 l/m 0 min 0 min 0 W/m 3,2 km/h (1 Bft) 97,87 %
15.10.2018 19:26 21,0 C 19,4 C 16,1 C 58 % 1012,0 hPa 0,0 l/m 0 min 0 min 0 W/m 3,2 km/h (1 Bft) 97,87 %
15.10.2018 19:28 20,9 C 19,4 C 16,1 C 59 % 1012,1 hPa 0,0 l/m 0 min 0 min 0 W/m 3,2 km/h (1 Bft) 97,87 %
15.10.2018 19:30 20,9 C 19,4 C 16,1 C 59 % 1012,1 hPa 0,0 l/m 0 min 0 min 0 W/m 0,0 km/h (0 Bft) 97,87 %
15.10.2018 19:32 20,8 C 18,9 C 16,1 C 59 % 1012,0 hPa 0,0 l/m 0 min 0 min 0 W/m 0,0 km/h (0 Bft) 97,50 %
15.10.2018 19:34 20,8 C 18,9 C 16,1 C 59 % 1012,1 hPa 0,0 l/m 0 min 0 min 0 W/m 3,2 km/h (1 Bft) 97,87 %
15.10.2018 19:38 20,7 C 18,9 C 16,1 C 59 % 1012,1 hPa 0,0 l/m 0 min 0 min 0 W/m 3,2 km/h (1 Bft) 97,94 %
15.10.2018 19:40 20,6 C 18,9 C 16,1 C 59 % 1012,1 hPa 0,0 l/m 0 min 0 min 0 W/m 3,2 km/h (1 Bft) 100,00 %
15.10.2018 19:42 20,6 C 18,9 C 15,6 C 59 % 1012,1 hPa 0,0 l/m 0 min 0 min 0 W/m 3,2 km/h (1 Bft) 100,00 %
15.10.2018 19:44 20,5 C 18,9 C 15,6 C 59 % 1012,2 hPa 0,0 l/m 0 min 0 min 0 W/m 3,2 km/h (1 Bft) 100,00 %
15.10.2018 19:46 20,4 C 18,3 C 15,6 C 60 % 1012,1 hPa 0,0 l/m 0 min 0 min 0 W/m 0,0 km/h (0 Bft) 97,87 %
15.10.2018 19:48 20,4 C 18,3 C 15,6 C 60 % 1012,2 hPa 0,0 l/m 0 min 0 min 0 W/m 0,0 km/h (0 Bft) 100,00 %
15.10.2018 19:50 20,3 C 17,8 C 15,6 C 60 % 1012,2 hPa 0,0 l/m 0 min 0 min 0 W/m 0,0 km/h (0 Bft) 100,00 %
15.10.2018 19:52 20,3 C 17,8 C 15,0 C 61 % 1012,2 hPa 0,0 l/m 0 min 0 min 0 W/m 0,0 km/h (0 Bft) 100,00 %
15.10.2018 19:54 20,2 C 17,8 C 15,0 C 61 % 1012,2 hPa 0,0 l/m 0 min 0 min 0 W/m 0,0 km/h (0 Bft) 100,00 %
15.10.2018 19:56 20,1 C 17,2 C 15,0 C 61 % 1012,2 hPa 0,0 l/m 0 min 0 min 0 W/m 0,0 km/h (0 Bft) 100,00 %
15.10.2018 19:58 20,1 C 17,2 C 15,0 C 62 % 1012,2 hPa 0,0 l/m 0 min 0 min 0 W/m 0,0 km/h (0 Bft) 100,00 %
15.10.2018 20:00 19,9 C 17,2 C 15,0 C 62 % 1012,2 hPa 0,0 l/m 0 min 0 min 0 W/m 0,0 km/h (0 Bft) 100,00 %
15.10.2018 20:02 19,8 C 17,2 C 15,0 C 62 % 1012,2 hPa 0,0 l/m 0 min 0 min 0 W/m 0,0 km/h (0 Bft) 100,00 %
15.10.2018 20:04 19,8 C 16,7 C 15,0 C 62 % 1012,1 hPa 0,0 l/m 0 min 0 min 0 W/m 0,0 km/h (0 Bft) 100,00 %
15.10.2018 20:08 19,6 C 16,7 C 15,0 C 62 % 1012,2 hPa 0,0 l/m 0 min 0 min 0 W/m 0,0 km/h (0 Bft) 95,79 %
15.10.2018 20:10 19,4 C 16,7 C 14,4 C 63 % 1012,2 hPa 0,0 l/m 0 min 0 min 0 W/m 0,0 km/h (0 Bft) 97,87 %
15.10.2018 20:12 19,3 C 16,7 C 14,4 C 64 % 1012,2 hPa 0,0 l/m 0 min 0 min 0 W/m 0,0 km/h (0 Bft) 95,74 %
15.10.2018 20:14 19,2 C 16,7 C 14,4 C 64 % 1012,2 hPa 0,0 l/m 0 min 0 min 0 W/m 0,0 km/h (0 Bft) 97,87 %
15.10.2018 20:16 19,1 C 16,1 C 14,4 C 64 % 1012,2 hPa 0,0 l/m 0 min 0 min 0 W/m 0,0 km/h (0 Bft) 97,87 %
15.10.2018 20:18 19,1 C 16,1 C 14,4 C 64 % 1012,2 hPa 0,0 l/m 0 min 0 min 0 W/m 0,0 km/h (0 Bft) 97,83 %
15.10.2018 20:20 18,9 C 16,1 C 14,4 C 65 % 1012,1 hPa 0,0 l/m 0 min 0 min 0 W/m 0,0 km/h (0 Bft) 97,87 %
15.10.2018 20:22 18,8 C 16,1 C 14,4 C 65 % 1012,2 hPa 0,0 l/m 0 min 0 min 0 W/m 0,0 km/h (0 Bft) 95,92 %
15.10.2018 20:24 18,7 C 16,1 C 14,4 C 65 % 1012,2 hPa 0,0 l/m 0 min 0 min 0 W/m 0,0 km/h (0 Bft) 97,87 %
15.10.2018 20:26 18,6 C 15,6 C 14,4 C 66 % 1012,2 hPa 0,0 l/m 0 min 0 min 0 W/m 0,0 km/h (0 Bft) 97,87 %
15.10.2018 20:28 18,5 C 15,6 C 14,4 C 66 % 1012,3 hPa 0,0 l/m 0 min 0 min 0 W/m 0,0 km/h (0 Bft) 97,87 %
15.10.2018 20:30 18,4 C 15,6 C 14,4 C 66 % 1012,3 hPa 0,0 l/m 0 min 0 min 0 W/m 0,0 km/h (0 Bft) 97,87 %
15.10.2018 20:32 18,3 C 15,6 C 14,4 C 67 % 1012,2 hPa 0,0 l/m 0 min 0 min 0 W/m 0,0 km/h (0 Bft) 97,56 %
15.10.2018 20:34 18,2 C 15,6 C 13,9 C 67 % 1012,3 hPa 0,0 l/m 0 min 0 min 0 W/m 0,0 km/h (0 Bft) 97,87 %
15.10.2018 20:38 18,0 C 15,6 C 13,9 C 67 % 1012,3 hPa 0,0 l/m 0 min 0 min 0 W/m 0,0 km/h (0 Bft) 97,92 %
15.10.2018 20:40 17,9 C 15,6 C 13,9 C 67 % 1012,2 hPa 0,0 l/m 0 min 0 min 0 W/m 0,0 km/h (0 Bft) 95,83 %
15.10.2018 20:42 17,8 C 15,0 C 13,9 C 68 % 1012,2 hPa 0,0 l/m 0 min 0 min 0 W/m 0,0 km/h (0 Bft) 97,92 %
15.10.2018 20:44 17,7 C 15,0 C 13,9 C 68 % 1012,2 hPa 0,0 l/m 0 min 0 min 0 W/m 0,0 km/h (0 Bft) 97,87 %
15.10.2018 20:46 17,6 C 15,0 C 13,9 C 68 % 1012,2 hPa 0,0 l/m 0 min 0 min 0 W/m 0,0 km/h (0 Bft) 97,92 %
15.10.2018 20:48 17,5 C 15,0 C 13,9 C 68 % 1012,2 hPa 0,0 l/m 0 min 0 min 0 W/m 0,0 km/h (0 Bft) 97,87 %
15.10.2018 20:50 17,4 C 15,0 C 13,9 C 69 % 1012,3 hPa 0,0 l/m 0 min 0 min 0 W/m 0,0 km/h (0 Bft) 97,87 %
15.10.2018 20:52 17,3 C 15,0 C 13,9 C 69 % 1012,3 hPa 0,0 l/m 0 min 0 min 0 W/m 0,0 km/h (0 Bft) 97,87 %
15.10.2018 20:54 17,3 C 14,4 C 13,9 C 69 % 1012,3 hPa 0,0 l/m 0 min 0 min 0 W/m 0,0 km/h (0 Bft) 97,87 %
15.10.2018 20:56 17,2 C 14,4 C 13,9 C 70 % 1012,3 hPa 0,0 l/m 0 min 0 min 0 W/m 0,0 km/h (0 Bft) 97,87 %
15.10.2018 20:58 17,1 C 14,4 C 13,9 C 70 % 1012,3 hPa 0,0 l/m 0 min 0 min 0 W/m 0,0 km/h (0 Bft) 100,00 %
15.10.2018 21:00 17,0 C 14,4 C 13,3 C 71 % 1012,4 hPa 0,0 l/m 0 min 0 min 0 W/m 0,0 km/h (0 Bft) 97,73 %
15.10.2018 21:02 16,9 C 14,4 C 13,3 C 71 % 1012,3 hPa 0,0 l/m 0 min 0 min 0 W/m 0,0 km/h (0 Bft) 98,00 %
15.10.2018 21:04 16,8 C 14,4 C 13,3 C 71 % 1012,4 hPa 0,0 l/m 0 min 0 min 0 W/m 0,0 km/h (0 Bft) 100,00 %
15.10.2018 21:08 16,6 C 13,9 C 13,3 C 71 % 1012,4 hPa 0,0 l/m 0 min 0 min 0 W/m 0,0 km/h (0 Bft) 97,73 %
15.10.2018 21:10 16,6 C 14,4 C 13,3 C 72 % 1012,5 hPa 0,0 l/m 0 min 0 min 0 W/m 0,0 km/h (0 Bft) 97,87 %
15.10.2018 21:12 16,5 C 14,4 C 13,3 C 72 % 1012,4 hPa 0,0 l/m 0 min 0 min 0 W/m 0,0 km/h (0 Bft) 97,96 %
15.10.2018 21:14 16,4 C 13,9 C 13,3 C 72 % 1012,4 hPa 0,0 l/m 0 min 0 min 0 W/m 0,0 km/h (0 Bft) 97,87 %
15.10.2018 21:16 16,3 C 13,9 C 13,3 C 72 % 1012,5 hPa 0,0 l/m 0 min 0 min 0 W/m 0,0 km/h (0 Bft) 95,83 %
15.10.2018 21:18 16,3 C 13,9 C 13,3 C 72 % 1012,4 hPa 0,0 l/m 0 min 0 min 0 W/m 0,0 km/h (0 Bft) 97,83 %
15.10.2018 21:20 16,2 C 13,9 C 13,3 C 73 % 1012,4 hPa 0,0 l/m 0 min 0 min 0 W/m 0,0 km/h (0 Bft) 97,92 %
15.10.2018 21:22 16,1 C 13,9 C 13,3 C 73 % 1012,5 hPa 0,0 l/m 0 min 0 min 0 W/m 0,0 km/h (0 Bft) 95,92 %
15.10.2018 21:24 16,1 C 13,9 C 13,3 C 73 % 1012,5 hPa 0,0 l/m 0 min 0 min 0 W/m 0,0 km/h (0 Bft) 97,87 %
15.10.2018 21:26 16,0 C 13,9 C 13,3 C 73 % 1012,5 hPa 0,0 l/m 0 min 0 min 0 W/m 0,0 km/h (0 Bft) 93,62 %
15.10.2018 21:28 15,9 C 13,9 C 13,3 C 74 % 1012,5 hPa 0,0 l/m 0 min 0 min 0 W/m 0,0 km/h (0 Bft) 97,87 %
15.10.2018 21:30 15,8 C 13,9 C 12,8 C 74 % 1012,5 hPa 0,0 l/m 0 min 0 min 0 W/m 0,0 km/h (0 Bft) 97,87 %
15.10.2018 21:32 15,8 C 13,9 C 12,8 C 74 % 1012,6 hPa 0,0 l/m 0 min 0 min 0 W/m 0,0 km/h (0 Bft) 97,62 %
15.10.2018 21:34 15,7 C 13,9 C 12,8 C 74 % 1012,6 hPa 0,0 l/m 0 min 0 min 0 W/m 0,0 km/h (0 Bft) 97,92 %
15.10.2018 21:38 15,6 C 13,3 C 12,8 C 75 % 1012,6 hPa 0,0 l/m 0 min 0 min 0 W/m 0,0 km/h (0 Bft) 96,43 %
15.10.2018 21:40 15,5 C 13,3 C 12,8 C 75 % 1012,6 hPa 0,0 l/m 0 min 0 min 0 W/m 0,0 km/h (0 Bft) 97,92 %
15.10.2018 21:42 15,4 C 13,3 C 12,8 C 75 % 1012,6 hPa 0,0 l/m 0 min 0 min 0 W/m 0,0 km/h (0 Bft) 97,96 %
15.10.2018 21:44 15,4 C 13,3 C 12,8 C 75 % 1012,6 hPa 0,0 l/m 0 min 0 min 0 W/m 0,0 km/h (0 Bft) 97,83 %
15.10.2018 21:46 15,3 C 13,3 C 12,8 C 75 % 1012,6 hPa 0,0 l/m 0 min 0 min 0 W/m 0,0 km/h (0 Bft) 97,92 %
15.10.2018 21:48 15,3 C 13,3 C 12,8 C 75 % 1012,6 hPa 0,0 l/m 0 min 0 min 0 W/m 0,0 km/h (0 Bft) 100,00 %
15.10.2018 21:50 15,2 C 13,3 C 12,8 C 75 % 1012,6 hPa 0,0 l/m 0 min 0 min 0 W/m 0,0 km/h (0 Bft) 100,00 %
15.10.2018 21:52 15,2 C 13,3 C 12,8 C 75 % 1012,6 hPa 0,0 l/m 0 min 0 min 0 W/m 0,0 km/h (0 Bft) 100,00 %
15.10.2018 21:54 15,1 C 13,3 C 12,8 C 76 % 1012,7 hPa 0,0 l/m 0 min 0 min 0 W/m 0,0 km/h (0 Bft) 97,87 %
15.10.2018 21:56 15,1 C 13,3 C 12,8 C 76 % 1012,7 hPa 0,0 l/m 0 min 0 min 0 W/m 0,0 km/h (0 Bft) 100,00 %
15.10.2018 21:58 15,0 C 13,3 C 12,8 C 76 % 1012,7 hPa 0,0 l/m 0 min 0 min 0 W/m 0,0 km/h (0 Bft) 95,74 %
15.10.2018 22:00 14,9 C 13,3 C 12,8 C 76 % 1012,8 hPa 0,0 l/m 0 min 0 min 0 W/m 0,0 km/h (0 Bft) 97,83 %
15.10.2018 22:02 14,9 C 12,8 C 12,8 C 76 % 1012,8 hPa 0,0 l/m 0 min 0 min 0 W/m 0,0 km/h (0 Bft) 97,87 %
15.10.2018 22:04 14,8 C 12,8 C 12,2 C 77 % 1012,8 hPa 0,0 l/m 0 min 0 min 0 W/m 0,0 km/h (0 Bft) 97,87 %
15.10.2018 22:08 14,7 C 12,8 C 12,2 C 77 % 1012,9 hPa 0,0 l/m 0 min 0 min 0 W/m 0,0 km/h (0 Bft) 96,81 %
15.10.2018 22:10 14,7 C 12,8 C 12,2 C 77 % 1012,9 hPa 0,0 l/m 0 min 0 min 0 W/m 0,0 km/h (0 Bft) 95,74 %
15.10.2018 22:12 14,7 C 12,8 C 12,2 C 77 % 1012,9 hPa 0,0 l/m 0 min 0 min 0 W/m 0,0 km/h (0 Bft) 95,65 %
15.10.2018 22:14 14,6 C 12,8 C 12,2 C 77 % 1012,9 hPa 0,0 l/m 0 min 0 min 0 W/m 0,0 km/h (0 Bft) 95,74 %
15.10.2018 22:16 14,6 C 12,8 C 12,2 C 78 % 1013,0 hPa 0,0 l/m 0 min 0 min 0 W/m 0,0 km/h (0 Bft) 97,87 %
15.10.2018 22:18 14,5 C 12,8 C 12,2 C 78 % 1012,9 hPa 0,0 l/m 0 min 0 min 0 W/m 0,0 km/h (0 Bft) 97,87 %
15.10.2018 22:20 14,4 C 12,8 C 12,2 C 78 % 1012,9 hPa 0,0 l/m 0 min 0 min 0 W/m 0,0 km/h (0 Bft) 98,28 %
15.10.2018 22:22 14,4 C 12,8 C 12,2 C 78 % 1013,0 hPa 0,0 l/m 0 min 0 min 0 W/m 0,0 km/h (0 Bft) 97,14 %
15.10.2018 22:24 14,3 C 12,8 C 12,2 C 78 % 1013,0 hPa 0,0 l/m 0 min 0 min 0 W/m 0,0 km/h (0 Bft) 97,87 %
15.10.2018 22:26 14,2 C 12,8 C 12,2 C 78 % 1013,0 hPa 0,0 l/m 0 min 0 min 0 W/m 0,0 km/h (0 Bft) 97,87 %
15.10.2018 22:28 14,2 C 12,8 C 12,2 C 79 % 1013,0 hPa 0,0 l/m 0 min 0 min 0 W/m 0,0 km/h (0 Bft) 97,87 %
15.10.2018 22:30 14,2 C 12,8 C 12,2 C 79 % 1013,1 hPa 0,0 l/m 0 min 0 min 0 W/m 0,0 km/h (0 Bft) 95,74 %
15.10.2018 22:32 14,2 C 12,8 C 12,2 C 79 % 1013,1 hPa 0,0 l/m 0 min 0 min 0 W/m 0,0 km/h (0 Bft) 95,74 %
15.10.2018 22:34 14,2 C 12,8 C 12,2 C 79 % 1013,1 hPa 0,0 l/m 0 min 0 min 0 W/m 0,0 km/h (0 Bft) 97,83 %
15.10.2018 22:38 14,1 C 12,2 C 12,2 C 79 % 1013,1 hPa 0,0 l/m 0 min 0 min 0 W/m 0,0 km/h (0 Bft) 97,87 %
15.10.2018 22:40 14,1 C 12,2 C 12,2 C 79 % 1013,1 hPa 0,0 l/m 0 min 0 min 0 W/m 0,0 km/h (0 Bft) 97,87 %
15.10.2018 22:42 14,0 C 12,2 C 12,2 C 79 % 1013,2 hPa 0,0 l/m 0 min 0 min 0 W/m 0,0 km/h (0 Bft) 97,87 %
15.10.2018 22:44 13,9 C 12,2 C 12,2 C 79 % 1013,2 hPa 0,0 l/m 0 min 0 min 0 W/m 0,0 km/h (0 Bft) 97,87 %
15.10.2018 22:46 13,9 C 12,2 C 11,7 C 79 % 1013,2 hPa 0,0 l/m 0 min 0 min 0 W/m 0,0 km/h (0 Bft) 97,83 %
15.10.2018 22:48 13,8 C 12,2 C 11,7 C 79 % 1013,2 hPa 0,0 l/m 0 min 0 min 0 W/m 0,0 km/h (0 Bft) 97,87 %
15.10.2018 22:50 13,8 C 12,2 C 11,7 C 79 % 1013,2 hPa 0,0 l/m 0 min 0 min 0 W/m 0,0 km/h (0 Bft) 96,61 %
15.10.2018 22:52 13,8 C 12,2 C 11,7 C 80 % 1013,2 hPa 0,0 l/m 0 min 0 min 0 W/m 0,0 km/h (0 Bft) 97,14 %
15.10.2018 22:54 13,7 C 12,2 C 11,7 C 80 % 1013,2 hPa 0,0 l/m 0 min 0 min 0 W/m 0,0 km/h (0 Bft) 97,87 %
15.10.2018 22:56 13,7 C 12,2 C 11,7 C 80 % 1013,2 hPa 0,0 l/m 0 min 0 min 0 W/m 0,0 km/h (0 Bft) 95,74 %
15.10.2018 22:58 13,7 C 12,2 C 11,7 C 80 % 1013,2 hPa 0,0 l/m 0 min 0 min 0 W/m 0,0 km/h (0 Bft) 97,83 %
15.10.2018 23:00 13,6 C 12,2 C 11,7 C 80 % 1013,2 hPa 0,0 l/m 0 min 0 min 0 W/m 0,0 km/h (0 Bft) 95,74 %
15.10.2018 23:02 13,6 C 12,2 C 11,7 C 80 % 1013,3 hPa 0,0 l/m 0 min 0 min 0 W/m 0,0 km/h (0 Bft) 97,87 %
15.10.2018 23:04 13,6 C 12,2 C 11,7 C 80 % 1013,3 hPa 0,0 l/m 0 min 0 min 0 W/m 0,0 km/h (0 Bft) 97,87 %
15.10.2018 23:08 13,5 C 12,2 C 11,7 C 80 % 1013,3 hPa 0,0 l/m 0 min 0 min 0 W/m 0,0 km/h (0 Bft) 95,70 %
15.10.2018 23:10 13,4 C 12,2 C 11,7 C 80 % 1013,2 hPa 0,0 l/m 0 min 0 min 0 W/m 0,0 km/h (0 Bft) 95,65 %
15.10.2018 23:12 13,4 C 11,7 C 11,7 C 80 % 1013,3 hPa 0,0 l/m 0 min 0 min 0 W/m 0,0 km/h (0 Bft) 93,62 %
15.10.2018 23:14 13,4 C 12,2 C 11,7 C 80 % 1013,2 hPa 0,0 l/m 0 min 0 min 0 W/m 0,0 km/h (0 Bft) 95,74 %
15.10.2018 23:16 13,3 C 12,2 C 11,7 C 80 % 1013,3 hPa 0,0 l/m 0 min 0 min 0 W/m 0,0 km/h (0 Bft) 91,49 %
15.10.2018 23:18 13,3 C 12,2 C 11,7 C 81 % 1013,2 hPa 0,0 l/m 0 min 0 min 0 W/m 0,0 km/h (0 Bft) 93,62 %
15.10.2018 23:20 13,3 C 12,2 C 11,7 C 81 % 1013,3 hPa 0,0 l/m 0 min 0 min 0 W/m 0,0 km/h (0 Bft) 96,55 %
15.10.2018 23:22 13,2 C 12,2 C 11,7 C 81 % 1013,3 hPa 0,0 l/m 0 min 0 min 0 W/m 0,0 km/h (0 Bft) 94,44 %
15.10.2018 23:24 13,2 C 12,2 C 11,7 C 81 % 1013,3 hPa 0,0 l/m 0 min 0 min 0 W/m 3,2 km/h (1 Bft) 95,74 %
15.10.2018 23:26 13,2 C 12,2 C 11,7 C 82 % 1013,3 hPa 0,0 l/m 0 min 0 min 0 W/m 3,2 km/h (1 Bft) 93,62 %
15.10.2018 23:28 13,2 C 12,2 C 11,7 C 82 % 1013,3 hPa 0,0 l/m 0 min 0 min 0 W/m 3,2 km/h (1 Bft) 95,74 %
15.10.2018 23:30 13,2 C 12,8 C 11,7 C 83 % 1013,3 hPa 0,0 l/m 0 min 0 min 0 W/m 3,2 km/h (1 Bft) 95,74 %
15.10.2018 23:32 13,1 C 12,8 C 11,7 C 83 % 1013,3 hPa 0,0 l/m 0 min 0 min 0 W/m 0,0 km/h (0 Bft) 95,65 %
15.10.2018 23:34 13,1 C 12,2 C 11,7 C 83 % 1013,3 hPa 0,0 l/m 0 min 0 min 0 W/m 0,0 km/h (0 Bft) 95,74 %
15.10.2018 23:38 13,1 C 12,2 C 11,7 C 83 % 1013,3 hPa 0,0 l/m 0 min 0 min 0 W/m 0,0 km/h (0 Bft) 93,88 %
15.10.2018 23:40 13,0 C 12,2 C 11,7 C 83 % 1013,3 hPa 0,0 l/m 0 min 0 min 0 W/m 0,0 km/h (0 Bft) 95,74 %
15.10.2018 23:42 13,0 C 12,2 C 11,7 C 83 % 1013,3 hPa 0,0 l/m 0 min 0 min 0 W/m 0,0 km/h (0 Bft) 95,74 %
15.10.2018 23:44 13,0 C 11,7 C 11,7 C 83 % 1013,3 hPa 0,0 l/m 0 min 0 min 0 W/m 0,0 km/h (0 Bft) 97,87 %
15.10.2018 23:46 12,9 C 11,7 C 11,7 C 83 % 1013,3 hPa 0,0 l/m 0 min 0 min 0 W/m 0,0 km/h (0 Bft) 97,87 %
15.10.2018 23:48 12,9 C 11,7 C 11,7 C 83 % 1013,4 hPa 0,0 l/m 0 min 0 min 0 W/m 0,0 km/h (0 Bft) 97,87 %
15.10.2018 23:50 12,9 C 11,7 C 11,7 C 83 % 1013,3 hPa 0,0 l/m 0 min 0 min 0 W/m 0,0 km/h (0 Bft) 95,65 %
15.10.2018 23:52 12,9 C 11,7 C 11,1 C 83 % 1013,3 hPa 0,0 l/m 0 min 0 min 0 W/m 0,0 km/h (0 Bft) 95,74 %
15.10.2018 23:54 12,8 C 11,7 C 11,1 C 83 % 1013,4 hPa 0,0 l/m 0 min 0 min 0 W/m 0,0 km/h (0 Bft) 97,87 %
15.10.2018 23:56 12,8 C 11,7 C 11,1 C 83 % 1013,4 hPa 0,0 l/m 0 min 0 min 0 W/m 0,0 km/h (0 Bft) 97,87 %
15.10.2018 23:58 12,8 C 11,1 C 11,1 C 83 % 1013,3 hPa 0,0 l/m 0 min 0 min 0 W/m 0,0 km/h (0 Bft) 97,87 %
_ Min-Zeit 23:54 23:58 23:52 14:20 00:00 - - - - 18:10 12:20
Minimum _ 12,8 C 11,1 C 11,1 C 51 % 1007,7 hPa - - - - 0,0 km/h (0 Bft) 91,38 %
_ Max-Zeit 14:50 11:26 14:14 23:30 23:48 18:34 13:08 00:00 14:04 10:46 00:00
Maximum _ 25,3 C 29,4 C 22,2 C 83 % 1013,4 hPa 0,2 l/m 4 min 0 min 454 W/m 22,5 km/h
SO (4 Bft)
100,00 %
Durchschnitt _ 18,9 C 18,1 C 15,7 C 68 % 1010,2 hPa #0,2 l/m #3:48 h #0 min. 173 W/m 7,6 km/h (2 Bft) 97,48 %
© 2018 W. Hausmann